Time,TemperatureF,DewpointF,PressureIn,WindDirection,WindDirectionDegrees,WindSpeedMPH,WindSpeedGustMPH,Humidity,HourlyPrecipIn,Conditions,Clouds,dailyrainin,SolarRadiationWatts/m^2,SoftwareType,DateUTC
2013-10-24 00:00:00,37.9,31.0,30.06,WNW,291,4.6,8.1,76,0.00,,,0.00,0.00,VWS V14.01,2013-10-24 05:00:00,
2013-10-24 00:01:00,37.9,31.0,30.06,WNW,291,4.6,5.8,76,0.00,,,0.00,0.00,VWS V14.01,2013-10-24 05:01:00,
2013-10-24 00:03:00,38.0,31.1,30.06,WNW,292,5.8,10.3,76,0.00,,,0.00,0.00,VWS V14.01,2013-10-24 05:03:00,
2013-10-24 00:04:00,38.0,31.1,30.06,WNW,289,6.9,10.3,76,0.00,,,0.00,0.00,VWS V14.01,2013-10-24 05:04:00,
2013-10-24 00:05:00,38.0,31.1,30.06,WNW,288,4.6,10.3,76,0.00,,,0.00,0.00,VWS V14.01,2013-10-24 05:05:00,
2013-10-24 00:06:00,37.9,31.0,30.06,WNW,288,4.6,5.8,76,0.00,,,0.00,0.00,VWS V14.01,2013-10-24 05:06:00,
2013-10-24 00:08:00,38.0,31.1,30.06,WNW,288,5.8,8.1,76,0.00,,,0.00,0.00,VWS V14.01,2013-10-24 05:08:00,
2013-10-24 00:09:00,38.0,31.1,30.06,WNW,287,2.3,9.2,76,0.00,,,0.00,0.00,VWS V14.01,2013-10-24 05:09:00,
2013-10-24 00:12:00,38.0,31.1,30.06,WNW,295,4.6,8.1,76,0.00,,,0.00,0.00,VWS V14.01,2013-10-24 05:12:00,
2013-10-24 00:13:00,38.0,31.1,30.06,WNW,295,3.4,8.1,76,0.00,,,0.00,0.00,VWS V14.01,2013-10-24 05:13:00,
2013-10-24 00:14:00,38.0,31.1,30.06,WNW,295,2.3,8.1,76,0.00,,,0.00,0.00,VWS V14.01,2013-10-24 05:14:00,
2013-10-24 00:15:00,38.0,31.1,30.06,WNW,295,5.8,8.1,76,0.00,,,0.00,0.00,VWS V14.01,2013-10-24 05:15:00,
2013-10-24 00:17:00,38.0,31.1,30.06,WNW,296,3.4,6.9,76,0.00,,,0.00,0.00,VWS V14.01,2013-10-24 05:17:00,
2013-10-24 00:18:00,38.0,31.1,30.06,WNW,296,5.8,6.9,76,0.00,,,0.00,0.00,VWS V14.01,2013-10-24 05:18:00,
2013-10-24 00:19:00,38.0,31.1,30.06,WNW,298,4.6,8.1,76,0.00,,,0.00,0.00,VWS V14.01,2013-10-24 05:19:00,
2013-10-24 00:20:00,38.0,31.1,30.06,WNW,299,6.9,8.1,76,0.00,,,0.00,0.00,VWS V14.01,2013-10-24 05:20:00,
2013-10-24 00:21:00,38.0,31.1,30.06,WNW,299,3.4,6.9,76,0.00,,,0.00,0.00,VWS V14.01,2013-10-24 05:21:00,
2013-10-24 00:23:00,38.0,31.1,30.06,WNW,298,6.9,6.9,76,0.00,,,0.00,0.00,VWS V14.01,2013-10-24 05:23:00,
2013-10-24 00:24:00,38.0,31.1,30.06,WNW,296,9.2,9.2,76,0.00,,,0.00,0.00,VWS V14.01,2013-10-24 05:24:00,
2013-10-24 00:25:00,38.0,31.1,30.06,WNW,296,2.3,9.2,76,0.00,,,0.00,0.00,VWS V14.01,2013-10-24 05:25:00,
2013-10-24 00:26:00,38.0,31.1,30.06,WNW,289,8.1,8.1,76,0.00,,,0.00,0.00,VWS V14.01,2013-10-24 05:26:00,
2013-10-24 00:27:00,38.0,31.1,30.06,WNW,288,5.8,8.1,76,0.00,,,0.00,0.00,VWS V14.01,2013-10-24 05:27:00,
2013-10-24 00:29:00,38.0,31.1,30.06,West,281,9.2,9.2,76,0.00,,,0.00,0.00,VWS V14.01,2013-10-24 05:29:00,
2013-10-24 00:31:00,38.0,31.1,30.06,NW,313,5.8,9.2,76,0.00,,,0.00,0.00,VWS V14.01,2013-10-24 05:31:00,
2013-10-24 00:32:00,38.0,31.1,30.06,NW,310,2.3,9.2,76,0.00,,,0.00,0.00,VWS V14.01,2013-10-24 05:32:00,
2013-10-24 00:33:00,38.0,31.1,30.06,NW,309,4.6,9.2,76,0.00,,,0.00,0.00,VWS V14.01,2013-10-24 05:33:00,
2013-10-24 00:36:00,38.0,31.1,30.06,WNW,300,8.1,10.3,76,0.00,,,0.00,0.00,VWS V14.01,2013-10-24 05:36:00,
2013-10-24 00:37:00,38.0,31.1,30.06,WNW,300,4.6,10.3,76,0.00,,,0.00,0.00,VWS V14.01,2013-10-24 05:37:00,
2013-10-24 00:38:00,38.0,31.1,30.06,NW,308,5.8,10.3,76,0.00,,,0.00,0.00,VWS V14.01,2013-10-24 05:38:00,
2013-10-24 00:41:00,38.0,31.1,30.06,WNW,292,6.9,6.9,76,0.00,,,0.00,0.00,VWS V14.01,2013-10-24 05:41:00,
2013-10-24 00:43:00,38.0,31.4,30.06,West,273,6.9,9.2,77,0.00,,,0.00,0.00,VWS V14.01,2013-10-24 05:43:00,
2013-10-24 00:44:00,38.0,31.4,30.06,WNW,288,6.9,9.2,77,0.00,,,0.00,0.00,VWS V14.01,2013-10-24 05:44:00,
2013-10-24 00:45:00,38.0,31.1,30.06,WNW,282,9.2,11.5,76,0.00,,,0.00,0.00,VWS V14.01,2013-10-24 05:45:00,
2013-10-24 00:47:00,38.0,31.1,30.06,WNW,286,6.9,11.5,76,0.00,,,0.00,0.00,VWS V14.01,2013-10-24 05:47:00,
2013-10-24 00:49:00,38.0,31.4,30.06,WNW,286,4.6,11.5,77,0.00,,,0.00,0.00,VWS V14.01,2013-10-24 05:49:00,
2013-10-24 00:51:00,37.9,31.4,30.06,WNW,284,4.6,8.1,77,0.00,,,0.00,0.00,VWS V14.01,2013-10-24 05:51:00,
2013-10-24 00:52:00,37.9,31.4,30.06,WNW,285,8.1,9.2,77,0.00,,,0.00,0.00,VWS V14.01,2013-10-24 05:52:00,
2013-10-24 00:53:00,37.9,31.4,30.06,WNW,282,4.6,9.2,77,0.00,,,0.00,0.00,VWS V14.01,2013-10-24 05:53:00,
2013-10-24 00:54:00,37.9,31.4,30.06,West,281,5.8,9.2,77,0.00,,,0.00,0.00,VWS V14.01,2013-10-24 05:54:00,
2013-10-24 00:57:00,37.9,31.4,30.06,WNW,285,4.6,6.9,77,0.00,,,0.00,0.00,VWS V14.01,2013-10-24 05:57:00,
2013-10-24 00:59:00,37.9,31.4,30.06,WNW,284,5.8,9.2,77,0.00,,,0.00,0.00,VWS V14.01,2013-10-24 05:59:00,
2013-10-24 01:00:00,37.9,31.4,30.06,WNW,283,3.4,9.2,77,0.00,,,0.00,0.00,VWS V14.01,2013-10-24 06:00:00,
2013-10-24 01:02:00,37.9,31.4,30.06,WNW,296,3.4,5.8,77,0.00,,,0.00,0.00,VWS V14.01,2013-10-24 06:02:00,
2013-10-24 01:05:00,37.9,31.4,30.06,WNW,295,5.8,6.9,77,0.00,,,0.00,0.00,VWS V14.01,2013-10-24 06:05:00,
2013-10-24 01:06:00,37.9,31.4,30.06,WNW,295,4.6,6.9,77,0.00,,,0.00,0.00,VWS V14.01,2013-10-24 06:06:00,
2013-10-24 01:07:00,37.9,31.4,30.06,WNW,290,3.4,6.9,77,0.00,,,0.00,0.00,VWS V14.01,2013-10-24 06:07:00,
2013-10-24 01:09:00,37.9,31.4,30.06,WNW,290,4.6,6.9,77,0.00,,,0.00,0.00,VWS V14.01,2013-10-24 06:09:00,
2013-10-24 01:11:00,37.9,31.4,30.06,WNW,290,3.4,5.8,77,0.00,,,0.00,0.00,VWS V14.01,2013-10-24 06:11:00,
2013-10-24 01:13:00,37.9,31.4,30.06,West,281,2.3,5.8,77,0.00,,,0.00,0.00,VWS V14.01,2013-10-24 06:13:00,
2013-10-24 01:14:00,37.9,31.4,30.06,West,281,6.9,6.9,77,0.00,,,0.00,0.00,VWS V14.01,2013-10-24 06:14:00,
2013-10-24 01:16:00,37.9,31.4,30.07,West,281,4.6,5.8,77,0.00,,,0.00,0.00,VWS V14.01,2013-10-24 06:16:00,
2013-10-24 01:17:00,37.9,31.4,30.07,West,281,3.4,5.8,77,0.00,,,0.00,0.00,VWS V14.01,2013-10-24 06:17:00,
2013-10-24 01:18:00,37.9,31.4,30.06,West,281,3.4,5.8,77,0.00,,,0.00,0.00,VWS V14.01,2013-10-24 06:18:00,
2013-10-24 01:20:00,37.9,31.4,30.07,West,281,3.4,3.4,77,0.00,,,0.00,0.00,VWS V14.01,2013-10-24 06:20:00,
2013-10-24 01:21:00,37.9,31.4,30.07,West,281,3.4,3.4,77,0.00,,,0.00,0.00,VWS V14.01,2013-10-24 06:21:00,
2013-10-24 01:22:00,37.9,31.4,30.07,WNW,285,4.6,5.8,77,0.00,,,0.00,0.00,VWS V14.01,2013-10-24 06:22:00,
2013-10-24 01:23:00,37.8,31.2,30.06,WNW,285,2.3,5.8,77,0.00,,,0.00,0.00,VWS V14.01,2013-10-24 06:23:00,
2013-10-24 01:26:00,37.8,31.2,30.07,WNW,285,3.4,5.8,77,0.00,,,0.00,0.00,VWS V14.01,2013-10-24 06:26:00,
2013-10-24 01:27:00,37.8,31.2,30.07,WNW,285,3.4,5.8,77,0.00,,,0.00,0.00,VWS V14.01,2013-10-24 06:27:00,
2013-10-24 01:28:00,37.8,31.2,30.07,WNW,286,3.4,5.8,77,0.00,,,0.00,0.00,VWS V14.01,2013-10-24 06:28:00,
2013-10-24 01:30:00,37.8,31.2,30.07,WNW,294,6.9,9.2,77,0.00,,,0.00,0.00,VWS V14.01,2013-10-24 06:30:00,
2013-10-24 01:31:00,37.8,31.6,30.07,WNW,290,6.9,9.2,78,0.00,,,0.00,0.00,VWS V14.01,2013-10-24 06:31:00,
2013-10-24 01:32:00,37.8,31.6,30.07,WNW,290,5.8,9.2,78,0.00,,,0.00,0.00,VWS V14.01,2013-10-24 06:32:00,
2013-10-24 01:33:00,37.8,31.6,30.07,WNW,288,5.8,9.2,78,0.00,,,0.00,0.00,VWS V14.01,2013-10-24 06:33:00,
2013-10-24 01:34:00,37.8,31.6,30.07,WNW,288,5.8,9.2,78,0.00,,,0.00,0.00,VWS V14.01,2013-10-24 06:34:00,
2013-10-24 01:37:00,37.8,31.6,30.07,WNW,288,3.4,6.9,78,0.00,,,0.00,0.00,VWS V14.01,2013-10-24 06:37:00,
2013-10-24 01:38:00,37.8,31.6,30.07,WNW,288,4.6,6.9,78,0.00,,,0.00,0.00,VWS V14.01,2013-10-24 06:38:00,
2013-10-24 01:39:00,37.7,31.5,30.07,WNW,294,3.4,6.9,78,0.00,,,0.00,0.00,VWS V14.01,2013-10-24 06:39:00,
2013-10-24 01:43:00,37.7,31.5,30.07,West,281,2.3,5.8,78,0.00,,,0.00,0.00,VWS V14.01,2013-10-24 06:43:00,
2013-10-24 01:44:00,37.7,31.5,30.07,West,281,4.6,5.8,78,0.00,,,0.00,0.00,VWS V14.01,2013-10-24 06:44:00,
2013-10-24 01:48:00,37.7,31.5,30.07,WNW,294,2.3,6.9,78,0.00,,,0.00,0.00,VWS V14.01,2013-10-24 06:48:00,
2013-10-24 01:49:00,37.7,31.5,30.07,WNW,294,4.6,6.9,78,0.00,,,0.00,0.00,VWS V14.01,2013-10-24 06:49:00,
2013-10-24 01:50:00,37.7,31.5,30.07,WNW,294,4.6,6.9,78,0.00,,,0.00,0.00,VWS V14.01,2013-10-24 06:50:00,
2013-10-24 01:53:00,37.6,31.7,30.07,WNW,289,4.6,6.9,79,0.00,,,0.00,0.00,VWS V14.01,2013-10-24 06:53:00,
2013-10-24 01:54:00,37.6,31.7,30.07,WNW,289,3.4,6.9,79,0.00,,,0.00,0.00,VWS V14.01,2013-10-24 06:54:00,
2013-10-24 01:55:00,37.6,31.7,30.07,West,279,4.6,6.9,79,0.00,,,0.00,0.00,VWS V14.01,2013-10-24 06:55:00,
2013-10-24 01:56:00,37.6,31.7,30.07,West,279,2.3,5.8,79,0.00,,,0.00,0.00,VWS V14.01,2013-10-24 06:56:00,
2013-10-24 01:59:00,37.6,31.7,30.07,West,277,2.3,6.9,79,0.00,,,0.00,0.00,VWS V14.01,2013-10-24 06:59:00,
2013-10-24 02:00:00,37.5,31.6,30.07,West,277,3.4,6.9,79,0.00,,,0.00,0.00,VWS V14.01,2013-10-24 07:00:00,
2013-10-24 02:01:00,37.5,31.6,30.07,West,277,4.6,4.6,79,0.00,,,0.00,0.00,VWS V14.01,2013-10-24 07:01:00,
2013-10-24 02:03:00,37.5,31.6,30.07,WNW,282,5.8,10.3,79,0.00,,,0.00,0.00,VWS V14.01,2013-10-24 07:03:00,
2013-10-24 02:04:00,37.5,31.6,30.07,WNW,284,3.4,10.3,79,0.00,,,0.00,0.00,VWS V14.01,2013-10-24 07:04:00,
2013-10-24 02:05:00,37.5,31.6,30.07,WNW,282,3.4,10.3,79,0.00,,,0.00,0.00,VWS V14.01,2013-10-24 07:05:00,
2013-10-24 02:07:00,37.5,31.6,30.07,West,281,2.3,8.1,79,0.00,,,0.00,0.00,VWS V14.01,2013-10-24 07:07:00,
2013-10-24 02:08:00,37.5,31.6,30.07,West,281,5.8,8.1,79,0.00,,,0.00,0.00,VWS V14.01,2013-10-24 07:08:00,
2013-10-24 02:10:00,37.4,31.5,30.07,WNW,290,5.8,9.2,79,0.00,,,0.00,0.00,VWS V14.01,2013-10-24 07:10:00,
2013-10-24 02:12:00,37.4,31.8,30.07,WNW,290,2.3,6.9,80,0.00,,,0.00,0.00,VWS V14.01,2013-10-24 07:12:00,
2013-10-24 02:13:00,37.4,31.8,30.07,WNW,290,4.6,6.9,80,0.00,,,0.00,0.00,VWS V14.01,2013-10-24 07:13:00,
2013-10-24 02:14:00,37.4,31.8,30.07,WNW,289,5.8,9.2,80,0.00,,,0.00,0.00,VWS V14.01,2013-10-24 07:14:00,
2013-10-24 02:15:00,37.4,31.8,30.07,WNW,289,6.9,9.2,80,0.00,,,0.00,0.00,VWS V14.01,2013-10-24 07:15:00,
2013-10-24 02:17:00,37.4,31.8,30.07,WNW,288,3.4,5.8,80,0.00,,,0.00,0.00,VWS V14.01,2013-10-24 07:17:00,
2013-10-24 02:18:00,37.4,31.8,30.07,West,281,5.8,8.1,80,0.00,,,0.00,0.00,VWS V14.01,2013-10-24 07:18:00,
2013-10-24 02:19:00,37.4,31.8,30.07,West,281,5.8,8.1,80,0.00,,,0.00,0.00,VWS V14.01,2013-10-24 07:19:00,
2013-10-24 02:20:00,37.4,31.8,30.07,West,281,8.1,8.1,80,0.00,,,0.00,0.00,VWS V14.01,2013-10-24 07:20:00,
2013-10-24 02:21:00,37.4,31.8,30.07,West,281,3.4,5.8,80,0.00,,,0.00,0.00,VWS V14.01,2013-10-24 07:21:00,
2013-10-24 02:23:00,37.4,31.8,30.07,West,281,6.9,6.9,80,0.00,,,0.00,0.00,VWS V14.01,2013-10-24 07:23:00,
2013-10-24 02:24:00,37.4,31.8,30.07,West,280,3.4,8.1,80,0.00,,,0.00,0.00,VWS V14.01,2013-10-24 07:24:00,
2013-10-24 02:25:00,37.4,31.8,30.07,West,280,2.3,8.1,80,0.00,,,0.00,0.00,VWS V14.01,2013-10-24 07:25:00,
2013-10-24 02:26:00,37.4,31.8,30.07,West,277,5.8,6.9,80,0.00,,,0.00,0.00,VWS V14.01,2013-10-24 07:26:00,
2013-10-24 02:28:00,37.4,32.1,30.07,West,277,5.8,8.1,81,0.00,,,0.00,0.00,VWS V14.01,2013-10-24 07:28:00,
2013-10-24 02:30:00,37.4,32.1,30.07,West,279,3.4,9.2,81,0.00,,,0.00,0.00,VWS V14.01,2013-10-24 07:30:00,
2013-10-24 02:31:00,37.4,32.1,30.07,West,279,4.6,4.6,81,0.00,,,0.00,0.00,VWS V14.01,2013-10-24 07:31:00,
2013-10-24 02:33:00,37.4,32.1,30.07,WNW,284,3.4,8.1,81,0.00,,,0.00,0.00,VWS V14.01,2013-10-24 07:33:00,
2013-10-24 02:34:00,37.4,32.1,30.07,WNW,284,2.3,8.1,81,0.00,,,0.00,0.00,VWS V14.01,2013-10-24 07:34:00,
2013-10-24 02:35:00,37.4,32.1,30.07,WNW,284,3.4,8.1,81,0.00,,,0.00,0.00,VWS V14.01,2013-10-24 07:35:00,
2013-10-24 02:36:00,37.4,32.1,30.07,WNW,282,6.9,6.9,81,0.00,,,0.00,0.00,VWS V14.01,2013-10-24 07:36:00,
2013-10-24 02:37:00,37.4,32.1,30.07,West,277,9.2,9.2,81,0.00,,,0.00,0.00,VWS V14.01,2013-10-24 07:37:00,
2013-10-24 02:39:00,37.4,32.1,30.07,WNW,292,3.4,9.2,81,0.00,,,0.00,0.00,VWS V14.01,2013-10-24 07:39:00,
2013-10-24 02:40:00,37.4,32.1,30.07,WNW,290,6.9,9.2,81,0.00,,,0.00,0.00,VWS V14.01,2013-10-24 07:40:00,
2013-10-24 02:42:00,37.4,32.1,30.07,WNW,283,4.6,6.9,81,0.00,,,0.00,0.00,VWS V14.01,2013-10-24 07:42:00,
2013-10-24 02:43:00,37.4,32.1,30.07,West,281,6.9,8.1,81,0.00,,,0.00,0.00,VWS V14.01,2013-10-24 07:43:00,
2013-10-24 02:44:00,37.4,32.4,30.07,WNW,288,3.4,8.1,82,0.00,,,0.00,0.00,VWS V14.01,2013-10-24 07:44:00,
2013-10-24 02:45:00,37.4,32.4,30.07,WNW,288,4.6,8.1,82,0.00,,,0.00,0.00,VWS V14.01,2013-10-24 07:45:00,
2013-10-24 02:46:00,37.4,32.4,30.07,WNW,288,4.6,4.6,82,0.00,,,0.00,0.00,VWS V14.01,2013-10-24 07:46:00,
2013-10-24 02:47:00,37.4,32.4,30.07,WNW,288,6.9,6.9,82,0.00,,,0.00,0.00,VWS V14.01,2013-10-24 07:47:00,
2013-10-24 02:48:00,37.4,32.4,30.07,WNW,284,6.9,6.9,82,0.00,,,0.00,0.00,VWS V14.01,2013-10-24 07:48:00,
2013-10-24 02:50:00,37.4,32.4,30.07,WNW,283,4.6,4.6,82,0.00,,,0.00,0.00,VWS V14.01,2013-10-24 07:50:00,
2013-10-24 02:51:00,37.4,32.4,30.07,WNW,283,8.1,8.1,82,0.00,,,0.00,0.00,VWS V14.01,2013-10-24 07:51:00,
2013-10-24 02:53:00,37.4,32.4,30.07,West,281,4.6,9.2,82,0.00,,,0.00,0.00,VWS V14.01,2013-10-24 07:53:00,
2013-10-24 02:56:00,37.4,32.4,30.07,West,278,5.8,10.3,82,0.00,,,0.00,0.00,VWS V14.01,2013-10-24 07:56:00,
2013-10-24 02:57:00,37.4,32.4,30.07,West,269,3.4,10.3,82,0.00,,,0.00,0.00,VWS V14.01,2013-10-24 07:57:00,
2013-10-24 02:58:00,37.5,32.5,30.07,West,269,4.6,10.3,82,0.00,,,0.00,0.00,VWS V14.01,2013-10-24 07:58:00,
2013-10-24 03:01:00,37.5,32.5,30.07,WNW,290,3.4,8.1,82,0.00,,,0.00,0.00,VWS V14.01,2013-10-24 08:01:00,
2013-10-24 03:02:00,37.5,32.5,30.07,WNW,282,5.8,8.1,82,0.00,,,0.00,0.00,VWS V14.01,2013-10-24 08:02:00,
2013-10-24 03:03:00,37.5,32.5,30.07,West,277,5.8,8.1,82,0.00,,,0.00,0.00,VWS V14.01,2013-10-24 08:03:00,
2013-10-24 03:04:00,37.5,32.5,30.07,West,278,5.8,8.1,82,0.00,,,0.00,0.00,VWS V14.01,2013-10-24 08:04:00,
2013-10-24 03:05:00,37.5,32.5,30.07,WNW,284,5.8,8.1,82,0.00,,,0.00,0.00,VWS V14.01,2013-10-24 08:05:00,
2013-10-24 03:07:00,37.5,32.5,30.07,WNW,283,4.6,6.9,82,0.00,,,0.00,0.00,VWS V14.01,2013-10-24 08:07:00,
2013-10-24 03:08:00,37.5,32.5,30.07,WNW,286,4.6,8.1,82,0.00,,,0.00,0.00,VWS V14.01,2013-10-24 08:08:00,
2013-10-24 03:10:00,37.5,32.5,30.07,WNW,286,4.6,8.1,82,0.00,,,0.00,0.00,VWS V14.01,2013-10-24 08:10:00,
2013-10-24 03:11:00,37.5,32.5,30.07,WNW,286,2.3,6.9,82,0.00,,,0.00,0.00,VWS V14.01,2013-10-24 08:11:00,
2013-10-24 03:12:00,37.5,32.5,30.07,WNW,282,4.6,9.2,82,0.00,,,0.00,0.00,VWS V14.01,2013-10-24 08:12:00,
2013-10-24 03:15:00,37.5,32.8,30.07,WNW,282,3.4,9.2,83,0.00,,,0.00,0.00,VWS V14.01,2013-10-24 08:15:00,
2013-10-24 03:16:00,37.5,32.8,30.07,West,281,6.9,6.9,83,0.00,,,0.00,0.00,VWS V14.01,2013-10-24 08:16:00,
2013-10-24 03:18:00,37.4,32.7,30.07,West,277,3.4,8.1,83,0.00,,,0.00,0.00,VWS V14.01,2013-10-24 08:18:00,
2013-10-24 03:20:00,37.5,32.8,30.07,West,277,8.1,8.1,83,0.00,,,0.00,0.00,VWS V14.01,2013-10-24 08:20:00,
2013-10-24 03:21:00,37.4,32.7,30.07,West,275,4.6,6.9,83,0.00,,,0.00,0.00,VWS V14.01,2013-10-24 08:21:00,
2013-10-24 03:22:00,37.4,32.7,30.07,West,275,4.6,6.9,83,0.00,,,0.00,0.00,VWS V14.01,2013-10-24 08:22:00,
2013-10-24 03:23:00,37.4,32.7,30.07,WNW,293,5.8,10.3,83,0.00,,,0.00,0.00,VWS V14.01,2013-10-24 08:23:00,
2013-10-24 03:25:00,37.4,32.7,30.07,WNW,292,5.8,5.8,83,0.00,,,0.00,0.00,VWS V14.01,2013-10-24 08:25:00,
2013-10-24 03:27:00,37.4,32.7,30.07,WNW,290,3.4,8.1,83,0.00,,,0.00,0.00,VWS V14.01,2013-10-24 08:27:00,
2013-10-24 03:29:00,37.4,32.7,30.07,NW,311,9.2,9.2,83,0.00,,,0.00,0.00,VWS V14.01,2013-10-24 08:29:00,
2013-10-24 03:30:00,37.4,32.7,30.07,NW,311,6.9,9.2,83,0.00,,,0.00,0.00,VWS V14.01,2013-10-24 08:30:00,
2013-10-24 03:32:00,37.4,32.7,30.07,WNW,285,9.2,9.2,83,0.00,,,0.00,0.00,VWS V14.01,2013-10-24 08:32:00,
2013-10-24 03:33:00,37.4,32.7,30.07,WNW,297,5.8,9.2,83,0.00,,,0.00,0.00,VWS V14.01,2013-10-24 08:33:00,
2013-10-24 03:34:00,37.4,32.7,30.07,WNW,297,5.8,9.2,83,0.00,,,0.00,0.00,VWS V14.01,2013-10-24 08:34:00,
2013-10-24 03:35:00,37.4,32.7,30.07,WNW,288,5.8,9.2,83,0.00,,,0.00,0.00,VWS V14.01,2013-10-24 08:35:00,
2013-10-24 03:36:00,37.4,32.7,30.07,WNW,288,5.8,6.9,83,0.00,,,0.00,0.00,VWS V14.01,2013-10-24 08:36:00,
2013-10-24 03:37:00,37.4,32.7,30.07,WNW,288,4.6,6.9,83,0.00,,,0.00,0.00,VWS V14.01,2013-10-24 08:37:00,
2013-10-24 03:38:00,37.4,32.7,30.07,WNW,289,5.8,6.9,83,0.00,,,0.00,0.00,VWS V14.01,2013-10-24 08:38:00,
2013-10-24 03:41:00,37.4,32.7,30.07,WNW,292,5.8,5.8,83,0.00,,,0.00,0.00,VWS V14.01,2013-10-24 08:41:00,
2013-10-24 03:42:00,37.4,32.7,30.07,WNW,290,3.4,6.9,83,0.00,,,0.00,0.00,VWS V14.01,2013-10-24 08:42:00,
2013-10-24 03:43:00,37.4,32.7,30.07,WNW,299,4.6,8.1,83,0.00,,,0.00,0.00,VWS V14.01,2013-10-24 08:43:00,
2013-10-24 03:44:00,37.3,32.6,30.07,WNW,299,4.6,8.1,83,0.00,,,0.00,0.00,VWS V14.01,2013-10-24 08:44:00,
2013-10-24 03:47:00,37.3,32.6,30.07,WNW,303,5.8,5.8,83,0.00,,,0.00,0.00,VWS V14.01,2013-10-24 08:47:00,
2013-10-24 03:49:00,37.4,33.0,30.07,West,272,5.8,8.1,84,0.00,,,0.00,0.00,VWS V14.01,2013-10-24 08:49:00,
2013-10-24 03:50:00,37.3,32.9,30.07,WNW,290,4.6,8.1,84,0.00,,,0.00,0.00,VWS V14.01,2013-10-24 08:50:00,
2013-10-24 03:52:00,37.3,32.9,30.07,WNW,290,4.6,5.8,84,0.00,,,0.00,0.00,VWS V14.01,2013-10-24 08:52:00,
2013-10-24 03:54:00,37.3,32.9,30.07,WNW,290,5.8,5.8,84,0.00,,,0.00,0.00,VWS V14.01,2013-10-24 08:54:00,
2013-10-24 03:55:00,37.3,32.9,30.07,WNW,289,4.6,6.9,84,0.00,,,0.00,0.00,VWS V14.01,2013-10-24 08:55:00,
2013-10-24 03:58:00,37.3,32.9,30.07,WNW,294,4.6,5.8,84,0.00,,,0.00,0.00,VWS V14.01,2013-10-24 08:58:00,
2013-10-24 03:59:00,37.3,32.9,30.07,WNW,294,2.3,5.8,84,0.00,,,0.00,0.00,VWS V14.01,2013-10-24 08:59:00,
2013-10-24 04:00:00,37.3,32.9,30.07,WNW,294,4.6,5.8,84,0.00,,,0.00,0.00,VWS V14.01,2013-10-24 09:00:00,
2013-10-24 04:01:00,37.3,32.9,30.07,WNW,294,5.8,5.8,84,0.00,,,0.00,0.00,VWS V14.01,2013-10-24 09:01:00,
2013-10-24 04:02:00,37.3,32.9,30.07,West,271,3.4,8.1,84,0.00,,,0.00,0.00,VWS V14.01,2013-10-24 09:02:00,
2013-10-24 04:04:00,37.2,32.8,30.07,WNW,303,4.6,8.1,84,0.00,,,0.00,0.00,VWS V14.01,2013-10-24 09:04:00,
2013-10-24 04:05:00,37.2,32.8,30.07,WNW,302,3.4,8.1,84,0.00,,,0.00,0.00,VWS V14.01,2013-10-24 09:05:00,
2013-10-24 04:06:00,37.2,32.8,30.07,WNW,302,4.6,6.9,84,0.00,,,0.00,0.00,VWS V14.01,2013-10-24 09:06:00,
2013-10-24 04:09:00,37.2,32.8,30.07,WNW,303,5.8,9.2,84,0.00,,,0.00,0.00,VWS V14.01,2013-10-24 09:09:00,
2013-10-24 04:10:00,37.2,32.8,30.07,WNW,298,3.4,9.2,84,0.00,,,0.00,0.00,VWS V14.01,2013-10-24 09:10:00,
2013-10-24 04:11:00,37.2,32.8,30.07,WNW,301,6.9,8.1,84,0.00,,,0.00,0.00,VWS V14.01,2013-10-24 09:11:00,
2013-10-24 04:12:00,37.2,32.8,30.07,WNW,300,8.1,8.1,84,0.00,,,0.00,0.00,VWS V14.01,2013-10-24 09:12:00,
2013-10-24 04:14:00,37.2,32.8,30.07,WNW,301,5.8,8.1,84,0.00,,,0.00,0.00,VWS V14.01,2013-10-24 09:14:00,
2013-10-24 04:15:00,37.2,32.8,30.07,WNW,301,3.4,8.1,84,0.00,,,0.00,0.00,VWS V14.01,2013-10-24 09:15:00,
2013-10-24 04:17:00,37.2,32.8,30.07,WNW,301,5.8,6.9,84,0.00,,,0.00,0.00,VWS V14.01,2013-10-24 09:17:00,
2013-10-24 04:18:00,37.2,32.8,30.07,WNW,300,3.4,6.9,84,0.00,,,0.00,0.00,VWS V14.01,2013-10-24 09:18:00,
2013-10-24 04:20:00,37.1,32.7,30.07,WNW,300,4.6,6.9,84,0.00,,,0.00,0.00,VWS V14.01,2013-10-24 09:20:00,
2013-10-24 04:22:00,37.1,32.7,30.07,WNW,300,2.3,6.9,84,0.00,,,0.00,0.00,VWS V14.01,2013-10-24 09:22:00,
2013-10-24 04:24:00,37.1,32.7,30.07,WNW,300,3.4,6.9,84,0.00,,,0.00,0.00,VWS V14.01,2013-10-24 09:24:00,
2013-10-24 04:25:00,37.1,32.7,30.07,WNW,300,4.6,6.9,84,0.00,,,0.00,0.00,VWS V14.01,2013-10-24 09:25:00,
2013-10-24 04:26:00,37.1,32.7,30.07,WNW,300,5.8,5.8,84,0.00,,,0.00,0.00,VWS V14.01,2013-10-24 09:26:00,
2013-10-24 04:27:00,37.1,33.0,30.07,WNW,298,3.4,5.8,85,0.00,,,0.00,0.00,VWS V14.01,2013-10-24 09:27:00,
2013-10-24 04:31:00,37.1,33.0,30.07,WNW,296,8.1,8.1,85,0.00,,,0.00,0.00,VWS V14.01,2013-10-24 09:31:00,
2013-10-24 04:32:00,37.1,33.0,30.07,WNW,296,3.4,8.1,85,0.00,,,0.00,0.00,VWS V14.01,2013-10-24 09:32:00,
2013-10-24 04:33:00,37.1,33.0,30.07,WNW,296,4.6,8.1,85,0.00,,,0.00,0.00,VWS V14.01,2013-10-24 09:33:00,
2013-10-24 04:37:00,37.0,32.9,30.07,WNW,297,5.8,5.8,85,0.00,,,0.00,0.00,VWS V14.01,2013-10-24 09:37:00,
2013-10-24 04:38:00,37.0,32.9,30.07,WNW,297,4.6,5.8,85,0.00,,,0.00,0.00,VWS V14.01,2013-10-24 09:38:00,
2013-10-24 04:39:00,37.0,32.9,30.07,WNW,297,3.4,5.8,85,0.00,,,0.00,0.00,VWS V14.01,2013-10-24 09:39:00,
2013-10-24 04:40:00,37.0,32.9,30.08,WNW,294,3.4,4.6,85,0.00,,,0.00,0.00,VWS V14.01,2013-10-24 09:40:00,
2013-10-24 04:42:00,37.0,32.9,30.07,WNW,294,2.3,4.6,85,0.00,,,0.00,0.00,VWS V14.01,2013-10-24 09:42:00,
2013-10-24 04:43:00,37.0,32.9,30.08,WNW,294,3.4,4.6,85,0.00,,,0.00,0.00,VWS V14.01,2013-10-24 09:43:00,
2013-10-24 04:44:00,37.0,32.9,30.08,WNW,294,2.3,5.8,85,0.00,,,0.00,0.00,VWS V14.01,2013-10-24 09:44:00,
2013-10-24 04:45:00,37.0,32.9,30.08,WNW,294,5.8,5.8,85,0.00,,,0.00,0.00,VWS V14.01,2013-10-24 09:45:00,
2013-10-24 04:46:00,37.0,32.9,30.08,WNW,296,5.8,9.2,85,0.00,,,0.00,0.00,VWS V14.01,2013-10-24 09:46:00,
2013-10-24 04:47:00,37.0,32.9,30.08,WNW,296,6.9,9.2,85,0.00,,,0.00,0.00,VWS V14.01,2013-10-24 09:47:00,
2013-10-24 04:49:00,36.9,32.8,30.08,WNW,298,2.3,9.2,85,0.00,,,0.00,0.00,VWS V14.01,2013-10-24 09:49:00,
2013-10-24 04:50:00,36.9,32.8,30.08,WNW,298,5.8,9.2,85,0.00,,,0.00,0.00,VWS V14.01,2013-10-24 09:50:00,
2013-10-24 04:51:00,36.9,32.8,30.08,WNW,298,3.4,5.8,85,0.00,,,0.00,0.00,VWS V14.01,2013-10-24 09:51:00,
2013-10-24 04:52:00,36.9,32.8,30.08,WNW,298,4.6,5.8,85,0.00,,,0.00,0.00,VWS V14.01,2013-10-24 09:52:00,
2013-10-24 04:55:00,36.9,32.8,30.08,WNW,298,3.4,3.4,85,0.00,,,0.00,0.00,VWS V14.01,2013-10-24 09:55:00,
2013-10-24 04:56:00,36.9,32.8,30.08,WNW,298,3.4,3.4,85,0.00,,,0.00,0.00,VWS V14.01,2013-10-24 09:56:00,
2013-10-24 04:57:00,36.9,32.8,30.08,WNW,298,3.4,4.6,85,0.00,,,0.00,0.00,VWS V14.01,2013-10-24 09:57:00,
2013-10-24 04:58:00,36.9,32.8,30.08,WNW,298,4.6,6.9,85,0.00,,,0.00,0.00,VWS V14.01,2013-10-24 09:58:00,
2013-10-24 05:00:00,36.8,32.7,30.08,WNW,299,8.1,8.1,85,0.00,,,0.00,0.00,VWS V14.01,2013-10-24 10:00:00,
2013-10-24 05:02:00,36.8,32.7,30.08,WNW,298,4.6,6.9,85,0.00,,,0.00,0.00,VWS V14.01,2013-10-24 10:02:00,
2013-10-24 05:04:00,36.8,32.7,30.08,WNW,298,5.8,6.9,85,0.00,,,0.00,0.00,VWS V14.01,2013-10-24 10:04:00,
2013-10-24 05:05:00,36.8,32.7,30.08,WNW,298,3.4,6.9,85,0.00,,,0.00,0.00,VWS V14.01,2013-10-24 10:05:00,
2013-10-24 05:06:00,36.8,32.7,30.08,WNW,298,6.9,6.9,85,0.00,,,0.00,0.00,VWS V14.01,2013-10-24 10:06:00,
2013-10-24 05:07:00,36.8,32.7,30.08,WNW,298,3.4,6.9,85,0.00,,,0.00,0.00,VWS V14.01,2013-10-24 10:07:00,
2013-10-24 05:09:00,36.8,32.7,30.08,WNW,296,2.3,6.9,85,0.00,,,0.00,0.00,VWS V14.01,2013-10-24 10:09:00,
2013-10-24 05:10:00,36.8,32.7,30.08,WNW,298,3.4,8.1,85,0.00,,,0.00,0.00,VWS V14.01,2013-10-24 10:10:00,
2013-10-24 05:11:00,36.8,32.7,30.08,WNW,298,4.6,5.8,85,0.00,,,0.00,0.00,VWS V14.01,2013-10-24 10:11:00,
2013-10-24 05:12:00,36.8,32.7,30.08,WNW,298,3.4,5.8,85,0.00,,,0.00,0.00,VWS V14.01,2013-10-24 10:12:00,
2013-10-24 05:14:00,36.8,32.7,30.08,WNW,298,3.4,5.8,85,0.00,,,0.00,0.00,VWS V14.01,2013-10-24 10:14:00,
2013-10-24 05:15:00,36.7,32.6,30.08,WNW,298,2.3,5.8,85,0.00,,,0.00,0.00,VWS V14.01,2013-10-24 10:15:00,
2013-10-24 05:17:00,36.7,32.6,30.08,WNW,298,4.6,4.6,85,0.00,,,0.00,0.00,VWS V14.01,2013-10-24 10:17:00,
2013-10-24 05:18:00,36.7,32.6,30.08,WNW,298,4.6,5.8,85,0.00,,,0.00,0.00,VWS V14.01,2013-10-24 10:18:00,
2013-10-24 05:20:00,36.7,32.6,30.08,WNW,298,1.1,5.8,85,0.00,,,0.00,0.00,VWS V14.01,2013-10-24 10:20:00,
2013-10-24 05:21:00,36.7,32.6,30.08,WNW,298,3.4,3.4,85,0.00,,,0.00,0.00,VWS V14.01,2013-10-24 10:21:00,
2013-10-24 05:23:00,36.6,32.5,30.09,WNW,298,3.4,5.8,85,0.00,,,0.00,0.00,VWS V14.01,2013-10-24 10:23:00,
2013-10-24 05:25:00,36.7,32.6,30.09,WNW,297,3.4,6.9,85,0.00,,,0.00,0.00,VWS V14.01,2013-10-24 10:25:00,
2013-10-24 05:27:00,36.6,32.5,30.09,WNW,297,4.6,5.8,85,0.00,,,0.00,0.00,VWS V14.01,2013-10-24 10:27:00,
2013-10-24 05:28:00,36.6,32.5,30.09,WNW,295,6.9,8.1,85,0.00,,,0.00,0.00,VWS V14.01,2013-10-24 10:28:00,
2013-10-24 05:29:00,36.6,32.5,30.09,WNW,295,4.6,8.1,85,0.00,,,0.00,0.00,VWS V14.01,2013-10-24 10:29:00,
2013-10-24 05:30:00,36.6,32.5,30.09,WNW,295,2.3,3.4,85,0.00,,,0.00,0.00,VWS V14.01,2013-10-24 10:30:00,
2013-10-24 05:31:00,36.6,32.5,30.09,WNW,295,3.4,4.6,85,0.00,,,0.00,0.00,VWS V14.01,2013-10-24 10:31:00,
2013-10-24 05:33:00,36.6,32.5,30.09,WNW,295,2.3,4.6,85,0.00,,,0.00,0.00,VWS V14.01,2013-10-24 10:33:00,
2013-10-24 05:34:00,36.6,32.5,30.09,WNW,295,2.3,5.8,85,0.00,,,0.00,0.00,VWS V14.01,2013-10-24 10:34:00,
2013-10-24 05:36:00,36.6,32.5,30.09,WNW,295,3.4,4.6,85,0.00,,,0.00,0.00,VWS V14.01,2013-10-24 10:36:00,
2013-10-24 05:39:00,36.6,32.5,30.09,WNW,294,4.6,5.8,85,0.00,,,0.00,0.00,VWS V14.01,2013-10-24 10:39:00,
2013-10-24 05:40:00,36.6,32.5,30.09,WNW,294,3.4,5.8,85,0.00,,,0.00,0.00,VWS V14.01,2013-10-24 10:40:00,
2013-10-24 05:41:00,36.6,32.5,30.09,WNW,294,2.3,4.6,85,0.00,,,0.00,0.00,VWS V14.01,2013-10-24 10:41:00,
2013-10-24 05:42:00,36.6,32.5,30.09,WNW,294,3.4,4.6,85,0.00,,,0.00,0.00,VWS V14.01,2013-10-24 10:42:00,
2013-10-24 05:44:00,36.5,32.4,30.09,WNW,299,3.4,6.9,85,0.00,,,0.00,0.00,VWS V14.01,2013-10-24 10:44:00,
2013-10-24 05:45:00,36.5,32.4,30.09,WNW,299,2.3,6.9,85,0.00,,,0.00,0.00,VWS V14.01,2013-10-24 10:45:00,
2013-10-24 05:47:00,36.5,32.4,30.09,WNW,299,3.4,6.9,85,0.00,,,0.00,0.00,VWS V14.01,2013-10-24 10:47:00,
2013-10-24 05:49:00,36.5,32.4,30.09,WNW,299,5.8,6.9,85,0.00,,,0.00,0.00,VWS V14.01,2013-10-24 10:49:00,
2013-10-24 05:50:00,36.5,32.7,30.09,WNW,299,3.4,6.9,86,0.00,,,0.00,0.00,VWS V14.01,2013-10-24 10:50:00,
2013-10-24 05:51:00,36.5,32.7,30.09,WNW,299,4.6,4.6,86,0.00,,,0.00,0.00,VWS V14.01,2013-10-24 10:51:00,
2013-10-24 05:52:00,36.5,32.7,30.09,WNW,299,3.4,5.8,86,0.00,,,0.00,0.00,VWS V14.01,2013-10-24 10:52:00,
2013-10-24 05:55:00,36.5,32.7,30.09,WNW,300,6.9,6.9,86,0.00,,,0.00,0.00,VWS V14.01,2013-10-24 10:55:00,
2013-10-24 05:56:00,36.5,32.7,30.09,WNW,300,4.6,4.6,86,0.00,,,0.00,0.00,VWS V14.01,2013-10-24 10:56:00,
2013-10-24 05:57:00,36.5,32.7,30.09,WNW,299,3.4,8.1,86,0.00,,,0.00,0.00,VWS V14.01,2013-10-24 10:57:00,
2013-10-24 06:00:00,36.5,32.7,30.09,WNW,300,4.6,8.1,86,0.00,,,0.00,0.00,VWS V14.01,2013-10-24 11:00:00,
2013-10-24 06:01:00,36.5,32.7,30.09,WNW,299,9.2,9.2,86,0.00,,,0.00,0.00,VWS V14.01,2013-10-24 11:01:00,
2013-10-24 06:02:00,36.5,32.7,30.09,WNW,296,4.6,9.2,86,0.00,,,0.00,0.00,VWS V14.01,2013-10-24 11:02:00,
2013-10-24 06:04:00,36.5,32.7,30.09,WNW,296,6.9,9.2,86,0.00,,,0.00,0.00,VWS V14.01,2013-10-24 11:04:00,
2013-10-24 06:05:00,36.5,32.7,30.09,WNW,303,6.9,6.9,86,0.00,,,0.00,0.00,VWS V14.01,2013-10-24 11:05:00,
2013-10-24 06:06:00,36.4,32.6,30.09,WNW,303,4.6,6.9,86,0.00,,,0.00,0.00,VWS V14.01,2013-10-24 11:06:00,
2013-10-24 06:07:00,36.5,32.7,30.09,WNW,303,5.8,6.9,86,0.00,,,0.00,0.00,VWS V14.01,2013-10-24 11:07:00,
2013-10-24 06:10:00,36.4,32.6,30.09,NW,313,5.8,10.3,86,0.00,,,0.00,0.00,VWS V14.01,2013-10-24 11:10:00,
2013-10-24 06:11:00,36.4,32.6,30.09,NW,313,5.8,5.8,86,0.00,,,0.00,0.00,VWS V14.01,2013-10-24 11:11:00,
2013-10-24 06:12:00,36.4,32.6,30.09,NW,313,2.3,6.9,86,0.00,,,0.00,0.00,VWS V14.01,2013-10-24 11:12:00,
2013-10-24 06:13:00,36.4,32.6,30.09,NW,313,3.4,6.9,86,0.00,,,0.00,0.00,VWS V14.01,2013-10-24 11:13:00,
2013-10-24 06:14:00,36.4,32.6,30.09,NW,305,3.4,6.9,86,0.00,,,0.00,0.00,VWS V14.01,2013-10-24 11:14:00,
2013-10-24 06:16:00,36.4,32.6,30.10,WNW,301,4.6,4.6,86,0.00,,,0.00,0.00,VWS V14.01,2013-10-24 11:16:00,
2013-10-24 06:17:00,36.5,32.7,30.10,WNW,300,3.4,4.6,86,0.00,,,0.00,0.00,VWS V14.01,2013-10-24 11:17:00,
2013-10-24 06:18:00,36.4,32.6,30.09,WNW,300,4.6,4.6,86,0.00,,,0.00,0.00,VWS V14.01,2013-10-24 11:18:00,
2013-10-24 06:19:00,36.4,32.6,30.10,WNW,300,3.4,4.6,86,0.00,,,0.00,0.00,VWS V14.01,2013-10-24 11:19:00,
2013-10-24 06:20:00,36.5,32.7,30.10,WNW,298,5.8,5.8,86,0.00,,,0.00,0.00,VWS V14.01,2013-10-24 11:20:00,
2013-10-24 06:22:00,36.4,32.6,30.10,WNW,299,4.6,5.8,86,0.00,,,0.00,0.00,VWS V14.01,2013-10-24 11:22:00,
2013-10-24 06:24:00,36.4,32.6,30.09,WNW,301,9.2,9.2,86,0.00,,,0.00,0.00,VWS V14.01,2013-10-24 11:24:00,
2013-10-24 06:25:00,36.4,32.6,30.10,WNW,299,6.9,9.2,86,0.00,,,0.00,0.00,VWS V14.01,2013-10-24 11:25:00,
2013-10-24 06:27:00,36.4,32.6,30.10,WNW,294,4.6,8.1,86,0.00,,,0.00,0.00,VWS V14.01,2013-10-24 11:27:00,
2013-10-24 06:28:00,36.4,32.6,30.09,WNW,295,5.8,8.1,86,0.00,,,0.00,0.00,VWS V14.01,2013-10-24 11:28:00,
2013-10-24 06:30:00,36.4,32.6,30.10,WNW,298,4.6,8.1,86,0.00,,,0.00,0.00,VWS V14.01,2013-10-24 11:30:00,
2013-10-24 06:32:00,36.4,32.6,30.10,NW,306,5.8,6.9,86,0.00,,,0.00,0.00,VWS V14.01,2013-10-24 11:32:00,
2013-10-24 06:33:00,36.4,32.6,30.10,WNW,303,4.6,8.1,86,0.00,,,0.00,0.00,VWS V14.01,2013-10-24 11:33:00,
2013-10-24 06:34:00,36.4,32.6,30.10,WNW,303,5.8,8.1,86,0.00,,,0.00,0.00,VWS V14.01,2013-10-24 11:34:00,
2013-10-24 06:36:00,36.4,32.6,30.10,WNW,303,6.9,6.9,86,0.00,,,0.00,0.00,VWS V14.01,2013-10-24 11:36:00,
2013-10-24 06:37:00,36.4,32.6,30.10,WNW,292,6.9,6.9,86,0.00,,,0.00,0.00,VWS V14.01,2013-10-24 11:37:00,
2013-10-24 06:39:00,36.4,32.6,30.10,WNW,287,4.6,8.1,86,0.00,,,0.00,0.00,VWS V14.01,2013-10-24 11:39:00,
2013-10-24 06:40:00,36.3,32.5,30.10,WNW,299,5.8,8.1,86,0.00,,,0.00,0.00,VWS V14.01,2013-10-24 11:40:00,
2013-10-24 06:41:00,36.4,32.6,30.10,NW,306,8.1,8.1,86,0.00,,,0.00,0.00,VWS V14.01,2013-10-24 11:41:00,
2013-10-24 06:43:00,36.4,32.6,30.10,NW,304,3.4,8.1,86,0.00,,,0.00,0.00,VWS V14.01,2013-10-24 11:43:00,
2013-10-24 06:44:00,36.4,32.6,30.10,NW,304,8.1,8.1,86,0.00,,,0.00,0.00,VWS V14.01,2013-10-24 11:44:00,
2013-10-24 06:45:00,36.4,32.6,30.10,WNW,288,8.1,8.1,86,0.00,,,0.00,0.00,VWS V14.01,2013-10-24 11:45:00,
2013-10-24 06:46:00,36.3,32.2,30.10,WNW,291,6.9,6.9,85,0.00,,,0.00,0.00,VWS V14.01,2013-10-24 11:46:00,
2013-10-24 06:48:00,36.4,32.3,30.10,WNW,301,4.6,8.1,85,0.00,,,0.00,0.00,VWS V14.01,2013-10-24 11:48:00,
2013-10-24 06:49:00,36.3,32.2,30.10,WNW,295,8.1,8.1,85,0.00,,,0.00,0.00,VWS V14.01,2013-10-24 11:49:00,
2013-10-24 06:50:00,36.3,32.2,30.10,WNW,294,4.6,8.1,85,0.00,,,0.00,0.00,VWS V14.01,2013-10-24 11:50:00,
2013-10-24 06:51:00,36.3,32.2,30.10,WNW,294,4.6,4.6,85,0.00,,,0.00,0.00,VWS V14.01,2013-10-24 11:51:00,
2013-10-24 06:52:00,36.3,32.2,30.10,WNW,296,3.4,6.9,85,0.00,,,0.00,0.00,VWS V14.01,2013-10-24 11:52:00,
2013-10-24 06:54:00,36.3,32.2,30.10,WNW,299,5.8,6.9,85,0.00,,,0.00,0.00,VWS V14.01,2013-10-24 11:54:00,
2013-10-24 06:55:00,36.3,32.2,30.10,WNW,303,4.6,8.1,85,0.00,,,0.00,0.00,VWS V14.01,2013-10-24 11:55:00,
2013-10-24 06:56:00,36.3,32.2,30.10,WNW,303,4.6,5.8,85,0.00,,,0.00,0.00,VWS V14.01,2013-10-24 11:56:00,
2013-10-24 06:57:00,36.3,32.2,30.10,WNW,302,3.4,5.8,85,0.00,,,0.00,0.00,VWS V14.01,2013-10-24 11:57:00,
2013-10-24 06:58:00,36.3,32.2,30.10,WNW,302,4.6,5.8,85,0.00,,,0.00,0.00,VWS V14.01,2013-10-24 11:58:00,
2013-10-24 07:01:00,36.3,32.2,30.10,WNW,302,3.4,5.8,85,0.00,,,0.00,0.00,VWS V14.01,2013-10-24 12:01:00,
2013-10-24 07:02:00,36.3,32.2,30.11,WNW,301,6.9,6.9,85,0.00,,,0.00,0.00,VWS V14.01,2013-10-24 12:02:00,
2013-10-24 07:03:00,36.3,32.2,30.11,NW,306,9.2,9.2,85,0.00,,,0.00,0.00,VWS V14.01,2013-10-24 12:03:00,
2013-10-24 07:05:00,36.2,32.1,30.11,WNW,297,6.9,9.2,85,0.00,,,0.00,0.00,VWS V14.01,2013-10-24 12:05:00,
2013-10-24 07:07:00,36.2,32.1,30.11,WNW,293,5.8,8.1,85,0.00,,,0.00,0.00,VWS V14.01,2013-10-24 12:07:00,
2013-10-24 07:08:00,36.2,32.1,30.11,WNW,297,3.4,8.1,85,0.00,,,0.00,0.00,VWS V14.01,2013-10-24 12:08:00,
2013-10-24 07:10:00,36.2,32.1,30.11,WNW,302,3.4,8.1,85,0.00,,,0.00,0.00,VWS V14.01,2013-10-24 12:10:00,
2013-10-24 07:12:00,36.2,32.1,30.11,NW,312,5.8,8.1,85,0.00,,,0.00,0.00,VWS V14.01,2013-10-24 12:12:00,
2013-10-24 07:13:00,36.2,32.1,30.11,WNW,300,9.2,9.2,85,0.00,,,0.00,0.00,VWS V14.01,2013-10-24 12:13:00,
2013-10-24 07:14:00,36.2,32.1,30.11,NW,304,4.6,9.2,85,0.00,,,0.00,0.00,VWS V14.01,2013-10-24 12:14:00,
2013-10-24 07:18:00,36.2,32.1,30.11,WNW,288,6.9,9.2,85,0.00,,,0.00,0.00,VWS V14.01,2013-10-24 12:18:00,
2013-10-24 07:19:00,36.2,32.1,30.11,WNW,300,3.4,9.2,85,0.00,,,0.00,0.00,VWS V14.01,2013-10-24 12:19:00,
2013-10-24 07:20:00,36.2,32.1,30.11,WNW,297,3.4,9.2,85,0.00,,,0.00,0.00,VWS V14.01,2013-10-24 12:20:00,
2013-10-24 07:23:00,36.2,32.1,30.11,NW,306,4.6,8.1,85,0.00,,,0.00,0.00,VWS V14.01,2013-10-24 12:23:00,
2013-10-24 07:24:00,36.2,32.1,30.11,NW,306,4.6,8.1,85,0.00,,,0.00,0.00,VWS V14.01,2013-10-24 12:24:00,
2013-10-24 07:25:00,36.1,32.0,30.11,WNW,298,5.8,8.1,85,0.00,,,0.00,0.00,VWS V14.01,2013-10-24 12:25:00,
2013-10-24 07:29:00,36.1,31.7,30.11,WNW,286,6.9,6.9,84,0.00,,,0.00,5.00,VWS V14.01,2013-10-24 12:29:00,
2013-10-24 07:30:00,36.1,31.7,30.11,WNW,291,4.6,6.9,84,0.00,,,0.00,5.00,VWS V14.01,2013-10-24 12:30:00,
2013-10-24 07:31:00,36.1,31.7,30.11,WNW,294,4.6,4.6,84,0.00,,,0.00,5.00,VWS V14.01,2013-10-24 12:31:00,
2013-10-24 07:35:00,36.1,31.7,30.12,WNW,294,5.8,9.2,84,0.00,,,0.00,7.00,VWS V14.01,2013-10-24 12:35:00,
2013-10-24 07:36:00,36.1,31.7,30.11,WNW,291,5.8,6.9,84,0.00,,,0.00,9.00,VWS V14.01,2013-10-24 12:36:00,
2013-10-24 07:37:00,36.1,31.7,30.11,WNW,291,3.4,6.9,84,0.00,,,0.00,9.00,VWS V14.01,2013-10-24 12:37:00,
2013-10-24 07:38:00,36.1,31.7,30.11,WNW,300,5.8,6.9,84,0.00,,,0.00,9.00,VWS V14.01,2013-10-24 12:38:00,
2013-10-24 07:39:00,36.1,31.7,30.12,NW,306,5.8,6.9,84,0.00,,,0.00,9.00,VWS V14.01,2013-10-24 12:39:00,
2013-10-24 07:40:00,36.1,31.7,30.12,NW,307,4.6,6.9,84,0.00,,,0.00,11.00,VWS V14.01,2013-10-24 12:40:00,
2013-10-24 07:42:00,36.1,31.7,30.12,WNW,300,2.3,5.8,84,0.00,,,0.00,11.00,VWS V14.01,2013-10-24 12:42:00,
2013-10-24 07:43:00,36.1,31.7,30.12,WNW,296,6.9,8.1,84,0.00,,,0.00,11.00,VWS V14.01,2013-10-24 12:43:00,
2013-10-24 07:46:00,36.1,31.7,30.12,WNW,302,5.8,6.9,84,0.00,,,0.00,12.00,VWS V14.01,2013-10-24 12:46:00,
2013-10-24 07:47:00,36.1,31.7,30.12,WNW,298,6.9,6.9,84,0.00,,,0.00,14.00,VWS V14.01,2013-10-24 12:47:00,
2013-10-24 07:48:00,36.1,31.7,30.12,WNW,287,6.9,6.9,84,0.00,,,0.00,14.00,VWS V14.01,2013-10-24 12:48:00,
2013-10-24 07:49:00,36.1,31.7,30.12,WNW,296,6.9,9.2,84,0.00,,,0.00,16.00,VWS V14.01,2013-10-24 12:49:00,
2013-10-24 07:50:00,36.1,31.7,30.12,NW,313,6.9,9.2,84,0.00,,,0.00,16.00,VWS V14.01,2013-10-24 12:50:00,
2013-10-24 07:51:00,36.1,31.7,30.12,NW,307,3.4,8.1,84,0.00,,,0.00,16.00,VWS V14.01,2013-10-24 12:51:00,
2013-10-24 07:52:00,36.1,31.7,30.12,NW,305,9.2,9.2,84,0.00,,,0.00,16.00,VWS V14.01,2013-10-24 12:52:00,
2013-10-24 07:53:00,36.1,31.7,30.12,WNW,294,4.6,9.2,84,0.00,,,0.00,16.00,VWS V14.01,2013-10-24 12:53:00,
2013-10-24 07:55:00,36.1,31.7,30.12,NW,325,3.4,9.2,84,0.00,,,0.00,16.00,VWS V14.01,2013-10-24 12:55:00,
2013-10-24 07:56:00,36.1,31.7,30.13,WNW,300,10.3,10.3,84,0.00,,,0.00,16.00,VWS V14.01,2013-10-24 12:56:00,
2013-10-24 07:57:00,36.1,31.7,30.13,WNW,296,8.1,10.3,84,0.00,,,0.00,16.00,VWS V14.01,2013-10-24 12:57:00,
2013-10-24 07:58:00,36.1,31.7,30.13,WNW,288,5.8,10.3,84,0.00,,,0.00,16.00,VWS V14.01,2013-10-24 12:58:00,
2013-10-24 07:59:00,36.1,31.7,30.13,WNW,298,6.9,10.3,84,0.00,,,0.00,16.00,VWS V14.01,2013-10-24 12:59:00,
2013-10-24 08:01:00,36.1,31.7,30.13,NW,315,3.4,5.8,84,0.00,,,0.00,16.00,VWS V14.01,2013-10-24 13:01:00,
2013-10-24 08:02:00,36.1,31.7,30.13,NW,317,4.6,5.8,84,0.00,,,0.00,16.00,VWS V14.01,2013-10-24 13:02:00,
2013-10-24 08:04:00,36.1,31.7,30.13,WNW,282,9.2,11.5,84,0.00,,,0.00,18.00,VWS V14.01,2013-10-24 13:04:00,
2013-10-24 08:05:00,36.1,31.7,30.13,NW,319,3.4,9.2,84,0.00,,,0.00,19.00,VWS V14.01,2013-10-24 13:05:00,
2013-10-24 08:07:00,36.1,31.7,30.13,NW,307,6.9,9.2,84,0.00,,,0.00,19.00,VWS V14.01,2013-10-24 13:07:00,
2013-10-24 08:08:00,36.1,31.7,30.13,NW,310,4.6,9.2,84,0.00,,,0.00,19.00,VWS V14.01,2013-10-24 13:08:00,
2013-10-24 08:09:00,36.1,31.7,30.13,NW,316,4.6,9.2,84,0.00,,,0.00,21.00,VWS V14.01,2013-10-24 13:09:00,
2013-10-24 08:10:00,36.1,31.7,30.13,WNW,293,11.5,11.5,84,0.00,,,0.00,21.00,VWS V14.01,2013-10-24 13:10:00,
2013-10-24 08:11:00,36.1,31.7,30.13,NW,321,6.9,9.2,84,0.00,,,0.00,21.00,VWS V14.01,2013-10-24 13:11:00,
2013-10-24 08:13:00,36.1,31.7,30.13,WNW,294,5.8,9.2,84,0.00,,,0.00,23.00,VWS V14.01,2013-10-24 13:13:00,
2013-10-24 08:14:00,36.1,31.7,30.13,West,279,4.6,9.2,84,0.00,,,0.00,23.00,VWS V14.01,2013-10-24 13:14:00,
2013-10-24 08:15:00,36.1,31.7,30.14,NW,311,13.8,13.8,84,0.00,,,0.00,25.00,VWS V14.01,2013-10-24 13:15:00,
2013-10-24 08:16:00,36.1,31.7,30.14,NW,314,10.3,11.5,84,0.00,,,0.00,25.00,VWS V14.01,2013-10-24 13:16:00,
2013-10-24 08:20:00,36.1,31.5,30.14,WNW,297,3.4,11.5,83,0.00,,,0.00,26.00,VWS V14.01,2013-10-24 13:20:00,
2013-10-24 08:21:00,36.1,31.5,30.14,WNW,302,6.9,6.9,83,0.00,,,0.00,28.00,VWS V14.01,2013-10-24 13:21:00,
2013-10-24 08:26:00,36.1,31.5,30.14,NW,308,5.8,9.2,83,0.00,,,0.00,35.00,VWS V14.01,2013-10-24 13:26:00,
2013-10-24 08:27:00,36.1,31.5,30.14,NNW,328,8.1,9.2,83,0.00,,,0.00,35.00,VWS V14.01,2013-10-24 13:27:00,
2013-10-24 08:28:00,36.1,31.5,30.14,NW,319,3.4,9.2,83,0.00,,,0.00,37.00,VWS V14.01,2013-10-24 13:28:00,
2013-10-24 08:29:00,36.1,31.5,30.14,NNW,329,5.8,9.2,83,0.00,,,0.00,39.00,VWS V14.01,2013-10-24 13:29:00,
2013-10-24 08:31:00,36.1,31.5,30.14,WNW,300,3.4,11.5,83,0.00,,,0.00,44.00,VWS V14.01,2013-10-24 13:31:00,
2013-10-24 08:33:00,36.2,31.5,30.14,NW,321,6.9,11.5,83,0.00,,,0.00,47.00,VWS V14.01,2013-10-24 13:33:00,
2013-10-24 08:34:00,36.2,31.5,30.14,NW,313,9.2,11.5,83,0.00,,,0.00,49.00,VWS V14.01,2013-10-24 13:34:00,
2013-10-24 08:35:00,36.2,31.5,30.14,NW,322,3.4,11.5,83,0.00,,,0.00,51.00,VWS V14.01,2013-10-24 13:35:00,
2013-10-24 08:36:00,36.2,31.5,30.15,NW,317,5.8,9.2,83,0.00,,,0.00,56.00,VWS V14.01,2013-10-24 13:36:00,
2013-10-24 08:37:00,36.2,31.5,30.15,WNW,303,4.6,9.2,83,0.00,,,0.00,60.00,VWS V14.01,2013-10-24 13:37:00,
2013-10-24 08:39:00,36.3,31.6,30.15,WNW,295,4.6,9.2,83,0.00,,,0.00,62.00,VWS V14.01,2013-10-24 13:39:00,
2013-10-24 08:40:00,36.4,31.4,30.15,NW,309,8.1,9.2,82,0.00,,,0.00,65.00,VWS V14.01,2013-10-24 13:40:00,
2013-10-24 08:41:00,36.4,31.7,30.15,NNW,331,5.8,12.6,83,0.00,,,0.00,70.00,VWS V14.01,2013-10-24 13:41:00,
2013-10-24 08:42:00,36.4,31.7,30.15,NW,319,9.2,12.6,83,0.00,,,0.00,70.00,VWS V14.01,2013-10-24 13:42:00,
2013-10-24 08:43:00,36.4,31.4,30.15,NW,314,6.9,12.6,82,0.00,,,0.00,72.00,VWS V14.01,2013-10-24 13:43:00,
2013-10-24 08:45:00,36.6,31.9,30.15,NW,305,6.9,8.1,83,0.00,,,0.00,77.00,VWS V14.01,2013-10-24 13:45:00,
2013-10-24 08:46:00,36.6,31.9,30.15,NW,304,5.8,8.1,83,0.00,,,0.00,79.00,VWS V14.01,2013-10-24 13:46:00,
2013-10-24 08:48:00,36.6,31.6,30.15,NNW,336,8.1,9.2,82,0.00,,,0.00,84.00,VWS V14.01,2013-10-24 13:48:00,
2013-10-24 08:49:00,36.6,31.6,30.15,WNW,299,10.3,10.3,82,0.00,,,0.00,86.00,VWS V14.01,2013-10-24 13:49:00,
2013-10-24 08:51:00,36.7,31.7,30.15,WNW,298,6.9,9.2,82,0.00,,,0.00,90.00,VWS V14.01,2013-10-24 13:51:00,
2013-10-24 08:52:00,36.8,31.8,30.15,WNW,290,6.9,9.2,82,0.00,,,0.00,91.00,VWS V14.01,2013-10-24 13:52:00,
2013-10-24 08:53:00,36.8,31.8,30.15,NNW,327,4.6,9.2,82,0.00,,,0.00,93.00,VWS V14.01,2013-10-24 13:53:00,
2013-10-24 08:54:00,36.8,31.8,30.15,NW,312,9.2,10.3,82,0.00,,,0.00,95.00,VWS V14.01,2013-10-24 13:54:00,
2013-10-24 08:57:00,36.9,31.6,30.15,NNW,335,6.9,11.5,81,0.00,,,0.00,100.00,VWS V14.01,2013-10-24 13:57:00,
2013-10-24 08:58:00,37.0,31.7,30.15,NW,312,6.9,11.5,81,0.00,,,0.00,104.00,VWS V14.01,2013-10-24 13:58:00,
2013-10-24 08:59:00,37.0,31.7,30.15,NW,307,5.8,11.5,81,0.00,,,0.00,111.00,VWS V14.01,2013-10-24 13:59:00,
2013-10-24 09:00:00,37.0,31.7,30.15,NNW,338,2.3,11.5,81,0.00,,,0.00,111.00,VWS V14.01,2013-10-24 14:00:00,
2013-10-24 09:02:00,37.1,31.8,30.15,WNW,301,1.1,6.9,81,0.00,,,0.00,120.00,VWS V14.01,2013-10-24 14:02:00,
2013-10-24 09:04:00,37.2,31.9,30.15,NW,306,13.8,13.8,81,0.00,,,0.00,128.00,VWS V14.01,2013-10-24 14:04:00,
2013-10-24 09:05:00,37.2,31.9,30.15,NW,304,6.9,13.8,81,0.00,,,0.00,132.00,VWS V14.01,2013-10-24 14:05:00,
2013-10-24 09:06:00,37.2,31.6,30.16,NNW,334,6.9,9.2,80,0.00,,,0.00,134.00,VWS V14.01,2013-10-24 14:06:00,
2013-10-24 09:07:00,37.2,31.6,30.16,WNW,291,11.5,16.1,80,0.00,,,0.00,139.00,VWS V14.01,2013-10-24 14:07:00,
2013-10-24 09:10:00,37.3,31.7,30.16,NW,314,9.2,16.1,80,0.00,,,0.00,142.00,VWS V14.01,2013-10-24 14:10:00,
2013-10-24 09:12:00,37.4,31.8,30.16,WNW,302,10.3,10.3,80,0.00,,,0.00,149.00,VWS V14.01,2013-10-24 14:12:00,
2013-10-24 09:13:00,37.5,32.2,30.16,NW,323,13.8,14.9,81,0.00,,,0.00,155.00,VWS V14.01,2013-10-24 14:13:00,
2013-10-24 09:14:00,37.5,31.9,30.16,WNW,300,6.9,14.9,80,0.00,,,0.00,158.00,VWS V14.01,2013-10-24 14:14:00,
2013-10-24 09:15:00,37.6,31.7,30.16,WNW,298,6.9,11.5,79,0.00,,,0.00,162.00,VWS V14.01,2013-10-24 14:15:00,
2013-10-24 09:16:00,37.6,31.7,30.16,WNW,298,5.8,11.5,79,0.00,,,0.00,165.00,VWS V14.01,2013-10-24 14:16:00,
2013-10-24 09:18:00,37.7,32.1,30.16,WNW,302,11.5,12.6,80,0.00,,,0.00,162.00,VWS V14.01,2013-10-24 14:18:00,
2013-10-24 09:20:00,37.7,31.8,30.16,WNW,295,9.2,12.6,79,0.00,,,0.00,155.00,VWS V14.01,2013-10-24 14:20:00,
2013-10-24 09:21:00,37.7,31.8,30.16,WNW,292,11.5,13.8,79,0.00,,,0.00,158.00,VWS V14.01,2013-10-24 14:21:00,
2013-10-24 09:23:00,37.7,31.5,30.16,WNW,294,9.2,14.9,78,0.00,,,0.00,158.00,VWS V14.01,2013-10-24 14:23:00,
2013-10-24 09:24:00,37.6,31.4,30.16,NNW,348,4.6,14.9,78,0.00,,,0.00,165.00,VWS V14.01,2013-10-24 14:24:00,
2013-10-24 09:25:00,37.6,31.4,30.16,NNW,327,9.2,14.9,78,0.00,,,0.00,169.00,VWS V14.01,2013-10-24 14:25:00,
2013-10-24 09:27:00,37.7,31.8,30.16,NW,313,4.6,11.5,79,0.00,,,0.00,172.00,VWS V14.01,2013-10-24 14:27:00,
2013-10-24 09:28:00,37.7,31.8,30.16,NNW,347,10.3,11.5,79,0.00,,,0.00,174.00,VWS V14.01,2013-10-24 14:28:00,
2013-10-24 09:29:00,37.7,31.5,30.16,NW,322,8.1,11.5,78,0.00,,,0.00,178.00,VWS V14.01,2013-10-24 14:29:00,
2013-10-24 09:30:00,37.8,31.6,30.16,NNW,329,8.1,11.5,78,0.00,,,0.00,179.00,VWS V14.01,2013-10-24 14:30:00,
2013-10-24 09:31:00,37.8,31.6,30.16,NNW,328,6.9,10.3,78,0.00,,,0.00,181.00,VWS V14.01,2013-10-24 14:31:00,
2013-10-24 09:32:00,37.8,31.6,30.16,WNW,296,10.3,10.3,78,0.00,,,0.00,183.00,VWS V14.01,2013-10-24 14:32:00,
2013-10-24 09:33:00,37.9,31.7,30.16,WNW,301,5.8,10.3,78,0.00,,,0.00,190.00,VWS V14.01,2013-10-24 14:33:00,
2013-10-24 09:35:00,38.2,32.3,30.16,WNW,299,8.1,11.5,79,0.00,,,0.00,181.00,VWS V14.01,2013-10-24 14:35:00,
2013-10-24 09:37:00,38.4,32.2,30.16,NW,306,8.1,14.9,78,0.00,,,0.00,172.00,VWS V14.01,2013-10-24 14:37:00,
2013-10-24 09:38:00,38.3,31.7,30.16,NW,308,9.2,16.1,77,0.00,,,0.00,178.00,VWS V14.01,2013-10-24 14:38:00,
2013-10-24 09:39:00,38.3,31.7,30.16,NNW,328,9.2,16.1,77,0.00,,,0.00,178.00,VWS V14.01,2013-10-24 14:39:00,
2013-10-24 09:41:00,38.2,31.6,30.16,NNW,329,8.1,10.3,77,0.00,,,0.00,178.00,VWS V14.01,2013-10-24 14:41:00,
2013-10-24 09:43:00,38.2,31.6,30.16,NNW,341,14.9,14.9,77,0.00,,,0.00,172.00,VWS V14.01,2013-10-24 14:43:00,
2013-10-24 09:44:00,38.2,31.6,30.16,NW,319,5.8,14.9,77,0.00,,,0.00,174.00,VWS V14.01,2013-10-24 14:44:00,
2013-10-24 09:45:00,38.2,31.6,30.16,NW,326,3.4,14.9,77,0.00,,,0.00,179.00,VWS V14.01,2013-10-24 14:45:00,
2013-10-24 09:46:00,38.2,31.3,30.16,NW,309,9.2,10.3,76,0.00,,,0.00,176.00,VWS V14.01,2013-10-24 14:46:00,
2013-10-24 09:49:00,38.3,32.0,30.17,NW,325,5.8,11.5,78,0.00,,,0.00,178.00,VWS V14.01,2013-10-24 14:49:00,
2013-10-24 09:51:00,38.4,31.8,30.17,NW,304,8.1,10.3,77,0.00,,,0.00,169.00,VWS V14.01,2013-10-24 14:51:00,
2013-10-24 09:53:00,38.5,32.2,30.17,NW,309,5.8,11.5,78,0.00,,,0.00,153.00,VWS V14.01,2013-10-24 14:53:00,
2013-10-24 09:54:00,38.6,32.0,30.17,NW,309,11.5,12.6,77,0.00,,,0.00,163.00,VWS V14.01,2013-10-24 14:54:00,
2013-10-24 09:55:00,38.6,32.0,30.17,WNW,298,9.2,13.8,77,0.00,,,0.00,163.00,VWS V14.01,2013-10-24 14:55:00,
2013-10-24 09:57:00,38.5,31.6,30.17,WNW,295,5.8,9.2,76,0.00,,,0.00,160.00,VWS V14.01,2013-10-24 14:57:00,
2013-10-24 09:58:00,38.5,31.6,30.17,NW,318,9.2,12.6,76,0.00,,,0.00,158.00,VWS V14.01,2013-10-24 14:58:00,
2013-10-24 10:00:00,38.6,31.7,30.17,NW,322,8.1,13.8,76,0.00,,,0.00,132.00,VWS V14.01,2013-10-24 15:00:00,
2013-10-24 10:02:00,38.7,31.8,30.17,NNW,338,10.3,11.5,76,0.00,,,0.00,128.00,VWS V14.01,2013-10-24 15:02:00,
2013-10-24 10:03:00,38.7,31.8,30.17,NW,305,9.2,11.5,76,0.00,,,0.00,132.00,VWS V14.01,2013-10-24 15:03:00,
2013-10-24 10:05:00,38.7,31.5,30.17,WNW,292,9.2,14.9,75,0.00,,,0.00,144.00,VWS V14.01,2013-10-24 15:05:00,
2013-10-24 10:06:00,38.7,31.5,30.17,WNW,302,9.2,12.6,75,0.00,,,0.00,139.00,VWS V14.01,2013-10-24 15:06:00,
2013-10-24 10:07:00,38.6,31.4,30.17,WNW,299,6.9,12.6,75,0.00,,,0.00,149.00,VWS V14.01,2013-10-24 15:07:00,
2013-10-24 10:09:00,38.7,31.5,30.17,NW,319,11.5,12.6,75,0.00,,,0.00,190.00,VWS V14.01,2013-10-24 15:09:00,
2013-10-24 10:10:00,38.8,31.6,30.17,NW,307,3.4,12.6,75,0.00,,,0.00,218.00,VWS V14.01,2013-10-24 15:10:00,
2013-10-24 10:11:00,39.1,31.9,30.17,WNW,294,6.9,11.5,75,0.00,,,0.00,239.00,VWS V14.01,2013-10-24 15:11:00,
2013-10-24 10:12:00,39.4,32.2,30.17,West,279,11.5,16.1,75,0.00,,,0.00,260.00,VWS V14.01,2013-10-24 15:12:00,
2013-10-24 10:13:00,39.6,32.3,30.17,WNW,298,9.2,16.1,75,0.00,,,0.00,269.00,VWS V14.01,2013-10-24 15:13:00,
2013-10-24 10:15:00,39.8,31.9,30.17,NNW,332,8.1,16.1,73,0.00,,,0.00,269.00,VWS V14.01,2013-10-24 15:15:00,
2013-10-24 10:16:00,40.1,31.8,30.17,WNW,289,10.3,13.8,72,0.00,,,0.00,250.00,VWS V14.01,2013-10-24 15:16:00,
2013-10-24 10:18:00,40.1,31.8,30.17,WNW,299,13.8,14.9,72,0.00,,,0.00,246.00,VWS V14.01,2013-10-24 15:18:00,
2013-10-24 10:19:00,40.1,31.8,30.17,WNW,297,9.2,16.1,72,0.00,,,0.00,244.00,VWS V14.01,2013-10-24 15:19:00,
2013-10-24 10:20:00,40.2,31.9,30.17,WNW,288,6.9,16.1,72,0.00,,,0.00,236.00,VWS V14.01,2013-10-24 15:20:00,
2013-10-24 10:22:00,40.4,32.4,30.17,WNW,299,11.5,20.7,73,0.00,,,0.00,220.00,VWS V14.01,2013-10-24 15:22:00,
2013-10-24 10:24:00,40.4,32.1,30.18,NW,304,13.8,20.7,72,0.00,,,0.00,211.00,VWS V14.01,2013-10-24 15:24:00,
2013-10-24 10:27:00,40.4,32.1,30.17,NW,309,6.9,12.6,72,0.00,,,0.00,202.00,VWS V14.01,2013-10-24 15:27:00,
2013-10-24 10:28:00,40.3,31.7,30.18,WNW,301,12.6,12.6,71,0.00,,,0.00,200.00,VWS V14.01,2013-10-24 15:28:00,
2013-10-24 10:29:00,40.1,31.5,30.18,NNW,329,8.1,13.8,71,0.00,,,0.00,209.00,VWS V14.01,2013-10-24 15:29:00,
2013-10-24 10:30:00,40.0,31.7,30.18,NNW,338,10.3,13.8,72,0.00,,,0.00,221.00,VWS V14.01,2013-10-24 15:30:00,
2013-10-24 10:32:00,39.9,31.6,30.18,WNW,290,9.2,14.9,72,0.00,,,0.00,236.00,VWS V14.01,2013-10-24 15:32:00,
2013-10-24 10:33:00,39.9,31.6,30.18,WNW,296,14.9,14.9,72,0.00,,,0.00,236.00,VWS V14.01,2013-10-24 15:33:00,
2013-10-24 10:34:00,39.9,31.6,30.18,WNW,282,10.3,14.9,72,0.00,,,0.00,218.00,VWS V14.01,2013-10-24 15:34:00,
2013-10-24 10:35:00,39.8,31.2,30.18,WNW,295,9.2,14.9,71,0.00,,,0.00,213.00,VWS V14.01,2013-10-24 15:35:00,
2013-10-24 10:38:00,39.4,30.8,30.18,NW,313,10.3,13.8,71,0.00,,,0.00,234.00,VWS V14.01,2013-10-24 15:38:00,
2013-10-24 10:39:00,39.4,30.8,30.18,WNW,296,10.3,13.8,71,0.00,,,0.00,200.00,VWS V14.01,2013-10-24 15:39:00,
2013-10-24 10:40:00,39.3,31.0,30.18,NW,319,4.6,13.8,72,0.00,,,0.00,193.00,VWS V14.01,2013-10-24 15:40:00,
2013-10-24 10:41:00,39.3,31.0,30.18,NNW,345,8.1,11.5,72,0.00,,,0.00,186.00,VWS V14.01,2013-10-24 15:41:00,
2013-10-24 10:44:00,39.3,30.7,30.18,NW,315,14.9,17.2,71,0.00,,,0.00,163.00,VWS V14.01,2013-10-24 15:44:00,
2013-10-24 10:45:00,39.3,31.0,30.18,NW,315,8.1,17.2,72,0.00,,,0.00,155.00,VWS V14.01,2013-10-24 15:45:00,
2013-10-24 10:46:00,39.3,31.0,30.18,NW,325,13.8,13.8,72,0.00,,,0.00,155.00,VWS V14.01,2013-10-24 15:46:00,
2013-10-24 10:49:00,39.2,30.6,30.18,WNW,294,4.6,14.9,71,0.00,,,0.00,186.00,VWS V14.01,2013-10-24 15:49:00,
2013-10-24 10:50:00,39.2,30.6,30.18,WNW,296,13.8,14.9,71,0.00,,,0.00,214.00,VWS V14.01,2013-10-24 15:50:00,
2013-10-24 10:51:00,39.2,30.6,30.18,NW,304,10.3,13.8,71,0.00,,,0.00,148.00,VWS V14.01,2013-10-24 15:51:00,
2013-10-24 10:52:00,39.4,30.8,30.18,WNW,297,6.9,16.1,71,0.00,,,0.00,137.00,VWS V14.01,2013-10-24 15:52:00,
2013-10-24 10:53:00,39.7,31.4,30.18,WNW,302,8.1,16.1,72,0.00,,,0.00,121.00,VWS V14.01,2013-10-24 15:53:00,
2013-10-24 10:54:00,39.9,31.3,30.18,NW,323,8.1,16.1,71,0.00,,,0.00,107.00,VWS V14.01,2013-10-24 15:54:00,
2013-10-24 10:55:00,40.0,31.0,30.18,NW,311,9.2,12.6,70,0.00,,,0.00,114.00,VWS V14.01,2013-10-24 15:55:00,
2013-10-24 10:56:00,40.0,31.0,30.18,WNW,302,10.3,12.6,70,0.00,,,0.00,95.00,VWS V14.01,2013-10-24 15:56:00,
2013-10-24 10:57:00,40.0,30.7,30.18,NNW,346,11.5,16.1,69,0.00,,,0.00,91.00,VWS V14.01,2013-10-24 15:57:00,
2013-10-24 10:58:00,40.0,30.7,30.18,North,349,6.9,16.1,69,0.00,,,0.00,91.00,VWS V14.01,2013-10-24 15:58:00,
2013-10-24 10:59:00,40.1,30.8,30.18,NNW,336,9.2,16.1,69,0.00,,,0.00,95.00,VWS V14.01,2013-10-24 15:59:00,
2013-10-24 11:00:00,40.1,30.8,30.18,NNW,346,10.3,16.1,69,0.00,,,0.00,95.00,VWS V14.01,2013-10-24 16:00:00,
2013-10-24 11:01:00,40.4,30.3,30.19,NNW,338,10.3,10.3,67,0.00,,,0.00,100.00,VWS V14.01,2013-10-24 16:01:00,
2013-10-24 11:02:00,40.5,30.4,30.19,NW,322,11.5,12.6,67,0.00,,,0.00,97.00,VWS V14.01,2013-10-24 16:02:00,
2013-10-24 11:03:00,40.6,30.9,30.19,West,279,6.9,12.6,68,0.00,,,0.00,98.00,VWS V14.01,2013-10-24 16:03:00,
2013-10-24 11:05:00,40.7,30.2,30.18,NW,307,9.2,13.8,66,0.00,,,0.00,120.00,VWS V14.01,2013-10-24 16:05:00,
2013-10-24 11:06:00,40.7,30.2,30.18,NW,307,9.2,10.3,66,0.00,,,0.00,123.00,VWS V14.01,2013-10-24 16:06:00,
2013-10-24 11:07:00,41.2,31.5,30.19,NNW,336,11.5,11.5,68,0.00,,,0.00,128.00,VWS V14.01,2013-10-24 16:07:00,
2013-10-24 11:08:00,41.2,31.5,30.19,NNW,336,6.9,11.5,68,0.00,,,0.00,128.00,VWS V14.01,2013-10-24 16:08:00,
2013-10-24 11:09:00,41.3,30.1,30.19,NW,323,8.1,13.8,64,0.00,,,0.00,148.00,VWS V14.01,2013-10-24 16:09:00,
2013-10-24 11:10:00,41.4,30.5,30.19,NW,322,6.9,13.8,65,0.00,,,0.00,160.00,VWS V14.01,2013-10-24 16:10:00,
2013-10-24 11:11:00,41.4,30.1,30.19,North,355,5.8,8.1,64,0.00,,,0.00,183.00,VWS V14.01,2013-10-24 16:11:00,
2013-10-24 11:12:00,41.5,30.6,30.18,NW,312,9.2,13.8,65,0.00,,,0.00,186.00,VWS V14.01,2013-10-24 16:12:00,
2013-10-24 11:14:00,41.5,29.5,30.19,NNW,347,9.2,13.8,62,0.00,,,0.00,155.00,VWS V14.01,2013-10-24 16:14:00,
2013-10-24 11:15:00,41.5,29.9,30.19,WNW,303,13.8,13.8,63,0.00,,,0.00,142.00,VWS V14.01,2013-10-24 16:15:00,
2013-10-24 11:16:00,41.5,29.9,30.19,WNW,284,11.5,13.8,63,0.00,,,0.00,130.00,VWS V14.01,2013-10-24 16:16:00,
2013-10-24 11:19:00,40.9,29.3,30.19,NW,320,9.2,16.1,63,0.00,,,0.00,109.00,VWS V14.01,2013-10-24 16:19:00,
2013-10-24 11:20:00,40.7,28.7,30.19,NW,308,5.8,16.1,62,0.00,,,0.00,111.00,VWS V14.01,2013-10-24 16:20:00,
2013-10-24 11:21:00,40.5,28.5,30.19,NNW,328,6.9,12.6,62,0.00,,,0.00,120.00,VWS V14.01,2013-10-24 16:21:00,
2013-10-24 11:22:00,40.3,27.9,30.19,NNW,344,6.9,12.6,61,0.00,,,0.00,130.00,VWS V14.01,2013-10-24 16:22:00,
2013-10-24 11:25:00,39.9,28.0,30.19,NW,304,5.8,12.6,62,0.00,,,0.00,155.00,VWS V14.01,2013-10-24 16:25:00,
2013-10-24 11:27:00,40.0,28.8,30.19,WNW,300,9.2,11.5,64,0.00,,,0.00,169.00,VWS V14.01,2013-10-24 16:27:00,
2013-10-24 11:30:00,40.2,27.8,30.19,WNW,301,16.1,16.1,61,0.00,,,0.00,176.00,VWS V14.01,2013-10-24 16:30:00,
2013-10-24 11:32:00,40.2,27.8,30.19,NNW,334,11.5,16.1,61,0.00,,,0.00,178.00,VWS V14.01,2013-10-24 16:32:00,
2013-10-24 11:33:00,40.2,27.8,30.19,NNW,331,5.8,16.1,61,0.00,,,0.00,188.00,VWS V14.01,2013-10-24 16:33:00,
2013-10-24 11:34:00,40.2,28.2,30.19,NW,316,4.6,16.1,62,0.00,,,0.00,188.00,VWS V14.01,2013-10-24 16:34:00,
2013-10-24 11:35:00,40.2,28.6,30.19,NNW,331,4.6,6.9,63,0.00,,,0.00,188.00,VWS V14.01,2013-10-24 16:35:00,
2013-10-24 11:36:00,40.2,28.6,30.19,NNW,327,4.6,6.9,63,0.00,,,0.00,188.00,VWS V14.01,2013-10-24 16:36:00,
2013-10-24 11:37:00,40.7,28.7,30.19,NNW,331,5.8,6.9,62,0.00,,,0.00,596.00,VWS V14.01,2013-10-24 16:37:00,
2013-10-24 11:38:00,41.0,29.0,30.19,NW,324,14.9,14.9,62,0.00,,,0.00,596.00,VWS V14.01,2013-10-24 16:38:00,
2013-10-24 11:41:00,41.1,27.5,30.19,NW,318,14.9,14.9,58,0.00,,,0.00,151.00,VWS V14.01,2013-10-24 16:41:00,
2013-10-24 11:42:00,41.0,27.4,30.19,NW,304,8.1,14.9,58,0.00,,,0.00,190.00,VWS V14.01,2013-10-24 16:42:00,
2013-10-24 11:43:00,41.0,27.4,30.19,NW,311,12.6,14.9,58,0.00,,,0.00,190.00,VWS V14.01,2013-10-24 16:43:00,
2013-10-24 11:44:00,41.3,28.1,30.20,NW,306,12.6,14.9,59,0.00,,,0.00,190.00,VWS V14.01,2013-10-24 16:44:00,
2013-10-24 11:47:00,41.9,28.6,30.20,NW,311,10.3,14.9,59,0.00,,,0.00,715.00,VWS V14.01,2013-10-24 16:47:00,
2013-10-24 11:48:00,42.1,29.2,30.20,WNW,296,5.8,18.4,60,0.00,,,0.00,661.00,VWS V14.01,2013-10-24 16:48:00,
2013-10-24 11:49:00,42.3,28.6,30.20,NNW,329,12.6,18.4,58,0.00,,,0.00,761.00,VWS V14.01,2013-10-24 16:49:00,
2013-10-24 11:52:00,42.8,28.2,30.20,NNW,345,12.6,14.9,56,0.00,,,0.00,304.00,VWS V14.01,2013-10-24 16:52:00,
2013-10-24 11:53:00,42.9,28.3,30.20,NNW,341,9.2,14.9,56,0.00,,,0.00,304.00,VWS V14.01,2013-10-24 16:53:00,
2013-10-24 11:54:00,42.9,28.3,30.20,North,360,11.5,16.1,56,0.00,,,0.00,304.00,VWS V14.01,2013-10-24 16:54:00,
2013-10-24 11:55:00,42.9,27.4,30.20,NNW,339,12.6,20.7,54,0.00,,,0.00,304.00,VWS V14.01,2013-10-24 16:55:00,
2013-10-24 11:58:00,43.0,28.8,30.20,NW,308,4.6,14.9,57,0.00,,,0.00,773.00,VWS V14.01,2013-10-24 16:58:00,
2013-10-24 11:59:00,43.0,28.8,30.20,North,360,16.1,16.1,57,0.00,,,0.00,773.00,VWS V14.01,2013-10-24 16:59:00,
2013-10-24 12:00:00,43.0,28.8,30.20,NW,323,14.9,16.1,57,0.00,,,0.00,773.00,VWS V14.01,2013-10-24 17:00:00,
2013-10-24 12:01:00,42.8,27.8,30.20,NW,315,10.3,18.4,55,0.00,,,0.00,343.00,VWS V14.01,2013-10-24 17:01:00,
2013-10-24 12:03:00,42.6,28.0,30.20,NNW,347,12.6,18.4,56,0.00,,,0.00,343.00,VWS V14.01,2013-10-24 17:03:00,
2013-10-24 12:05:00,42.4,27.0,30.20,North,5,11.5,18.4,54,0.00,,,0.00,343.00,VWS V14.01,2013-10-24 17:05:00,
2013-10-24 12:07:00,42.5,27.5,30.20,NW,306,10.3,18.4,55,0.00,,,0.00,343.00,VWS V14.01,2013-10-24 17:07:00,
2013-10-24 12:10:00,42.7,27.2,30.20,NW,308,13.8,18.4,54,0.00,,,0.00,220.00,VWS V14.01,2013-10-24 17:10:00,
2013-10-24 12:11:00,42.5,26.1,30.20,NW,306,9.2,13.8,52,0.00,,,0.00,118.00,VWS V14.01,2013-10-24 17:11:00,
2013-10-24 12:12:00,42.4,26.0,30.20,NNW,338,9.2,13.8,52,0.00,,,0.00,118.00,VWS V14.01,2013-10-24 17:12:00,
2013-10-24 12:13:00,42.1,26.2,30.20,NW,318,10.3,13.8,53,0.00,,,0.00,155.00,VWS V14.01,2013-10-24 17:13:00,
2013-10-24 12:15:00,41.7,26.3,30.20,WNW,288,10.3,13.8,54,0.00,,,0.00,183.00,VWS V14.01,2013-10-24 17:15:00,
2013-10-24 12:17:00,41.8,27.3,30.20,West,280,8.1,17.2,56,0.00,,,0.00,336.00,VWS V14.01,2013-10-24 17:17:00,
2013-10-24 12:18:00,42.1,27.1,30.20,WNW,297,17.2,18.4,55,0.00,,,0.00,264.00,VWS V14.01,2013-10-24 17:18:00,
2013-10-24 12:19:00,42.3,27.3,30.20,West,277,8.1,18.4,55,0.00,,,0.00,227.00,VWS V14.01,2013-10-24 17:19:00,
2013-10-24 12:21:00,42.7,28.1,30.20,NW,307,12.6,13.8,56,0.00,,,0.00,248.00,VWS V14.01,2013-10-24 17:21:00,
2013-10-24 12:22:00,42.9,27.4,30.20,NNW,344,9.2,14.9,54,0.00,,,0.00,197.00,VWS V14.01,2013-10-24 17:22:00,
2013-10-24 12:23:00,43.0,28.4,30.20,NNW,327,6.9,14.9,56,0.00,,,0.00,176.00,VWS V14.01,2013-10-24 17:23:00,
2013-10-24 12:24:00,42.9,28.3,30.20,NNW,340,10.3,14.9,56,0.00,,,0.00,174.00,VWS V14.01,2013-10-24 17:24:00,
2013-10-24 12:26:00,42.4,27.0,30.20,NW,316,13.8,14.9,54,0.00,,,0.00,169.00,VWS V14.01,2013-10-24 17:26:00,
2013-10-24 12:28:00,41.9,26.0,30.20,NW,309,9.2,14.9,53,0.00,,,0.00,171.00,VWS V14.01,2013-10-24 17:28:00,
2013-10-24 12:29:00,41.6,26.6,30.20,NW,305,17.2,17.2,55,0.00,,,0.00,176.00,VWS V14.01,2013-10-24 17:29:00,
2013-10-24 12:30:00,41.5,27.0,30.20,NNW,340,9.2,17.2,56,0.00,,,0.00,181.00,VWS V14.01,2013-10-24 17:30:00,
2013-10-24 12:31:00,41.4,26.9,30.20,NW,308,11.5,12.6,56,0.00,,,0.00,188.00,VWS V14.01,2013-10-24 17:31:00,
2013-10-24 12:33:00,41.2,25.8,30.20,NW,315,13.8,19.5,54,0.00,,,0.00,204.00,VWS V14.01,2013-10-24 17:33:00,
2013-10-24 12:35:00,41.1,24.8,30.20,NW,317,12.6,19.5,52,0.00,,,0.00,229.00,VWS V14.01,2013-10-24 17:35:00,
2013-10-24 12:37:00,41.1,24.8,30.20,WNW,288,11.5,14.9,52,0.00,,,0.00,213.00,VWS V14.01,2013-10-24 17:37:00,
2013-10-24 12:38:00,41.1,25.7,30.20,NW,309,10.3,18.4,54,0.00,,,0.00,204.00,VWS V14.01,2013-10-24 17:38:00,
2013-10-24 12:39:00,41.2,25.8,30.20,NW,313,9.2,18.4,54,0.00,,,0.00,193.00,VWS V14.01,2013-10-24 17:39:00,
2013-10-24 12:42:00,41.2,26.7,30.20,NW,308,9.2,17.2,56,0.00,,,0.00,172.00,VWS V14.01,2013-10-24 17:42:00,
2013-10-24 12:43:00,41.1,26.2,30.20,NW,317,14.9,17.2,55,0.00,,,0.00,172.00,VWS V14.01,2013-10-24 17:43:00,
2013-10-24 12:44:00,40.9,26.0,30.20,NW,314,12.6,17.2,55,0.00,,,0.00,151.00,VWS V14.01,2013-10-24 17:44:00,
2013-10-24 12:45:00,40.8,25.9,30.20,NW,320,12.6,17.2,55,0.00,,,0.00,151.00,VWS V14.01,2013-10-24 17:45:00,
2013-10-24 12:47:00,40.6,26.6,30.20,WSW,254,6.9,13.8,57,0.00,,,0.00,148.00,VWS V14.01,2013-10-24 17:47:00,
2013-10-24 12:48:00,40.6,26.1,30.20,WNW,301,9.2,14.9,56,0.00,,,0.00,160.00,VWS V14.01,2013-10-24 17:48:00,
2013-10-24 12:49:00,40.6,26.1,30.20,NW,307,4.6,14.9,56,0.00,,,0.00,176.00,VWS V14.01,2013-10-24 17:49:00,
2013-10-24 12:50:00,40.7,26.7,30.20,WNW,288,6.9,14.9,57,0.00,,,0.00,311.00,VWS V14.01,2013-10-24 17:50:00,
2013-10-24 12:52:00,41.5,27.8,30.20,WNW,282,9.2,10.3,58,0.00,,,0.00,221.00,VWS V14.01,2013-10-24 17:52:00,
2013-10-24 12:54:00,41.8,27.3,30.20,NW,314,19.5,20.7,56,0.00,,,0.00,178.00,VWS V14.01,2013-10-24 17:54:00,
2013-10-24 12:55:00,41.8,26.8,30.20,NW,319,14.9,20.7,55,0.00,,,0.00,176.00,VWS V14.01,2013-10-24 17:55:00,
2013-10-24 12:56:00,41.8,26.8,30.20,WNW,300,6.9,11.5,55,0.00,,,0.00,178.00,VWS V14.01,2013-10-24 17:56:00,
2013-10-24 12:59:00,41.5,27.0,30.20,NW,323,6.9,19.5,56,0.00,,,0.00,211.00,VWS V14.01,2013-10-24 17:59:00,
2013-10-24 13:00:00,41.5,27.0,30.20,NNW,329,8.1,19.5,56,0.00,,,0.00,211.00,VWS V14.01,2013-10-24 18:00:00,
2013-10-24 13:01:00,41.4,26.9,30.20,NW,320,12.6,16.1,56,0.00,,,0.00,213.00,VWS V14.01,2013-10-24 18:01:00,
2013-10-24 13:02:00,41.4,26.9,30.20,NW,304,16.1,18.4,56,0.00,,,0.00,213.00,VWS V14.01,2013-10-24 18:02:00,
2013-10-24 13:05:00,41.2,27.1,30.20,WNW,288,9.2,18.4,57,0.00,,,0.00,220.00,VWS V14.01,2013-10-24 18:05:00,
2013-10-24 13:07:00,41.3,26.8,30.20,West,280,14.9,16.1,56,0.00,,,0.00,229.00,VWS V14.01,2013-10-24 18:07:00,
2013-10-24 13:08:00,41.3,26.4,30.20,WNW,303,3.4,16.1,55,0.00,,,0.00,227.00,VWS V14.01,2013-10-24 18:08:00,
2013-10-24 13:10:00,41.3,26.8,30.20,WNW,286,9.2,16.1,56,0.00,,,0.00,225.00,VWS V14.01,2013-10-24 18:10:00,
2013-10-24 13:11:00,41.3,26.8,30.20,NW,304,9.2,9.2,56,0.00,,,0.00,227.00,VWS V14.01,2013-10-24 18:11:00,
2013-10-24 13:13:00,41.5,26.5,30.20,West,277,11.5,11.5,55,0.00,,,0.00,237.00,VWS V14.01,2013-10-24 18:13:00,
2013-10-24 13:14:00,41.5,26.5,30.20,NW,325,9.2,13.8,55,0.00,,,0.00,246.00,VWS V14.01,2013-10-24 18:14:00,
2013-10-24 13:16:00,41.6,25.8,30.20,West,279,11.5,13.8,53,0.00,,,0.00,272.00,VWS V14.01,2013-10-24 18:16:00,
2013-10-24 13:18:00,41.6,26.2,30.20,West,281,10.3,13.8,54,0.00,,,0.00,265.00,VWS V14.01,2013-10-24 18:18:00,
2013-10-24 13:19:00,41.6,25.8,30.20,WNW,292,9.2,13.8,53,0.00,,,0.00,234.00,VWS V14.01,2013-10-24 18:19:00,
2013-10-24 13:20:00,41.6,25.3,30.20,WNW,294,8.1,13.8,52,0.00,,,0.00,234.00,VWS V14.01,2013-10-24 18:20:00,
2013-10-24 13:21:00,41.5,26.1,30.20,North,355,11.5,11.5,54,0.00,,,0.00,225.00,VWS V14.01,2013-10-24 18:21:00,
2013-10-24 13:25:00,41.5,26.5,30.20,NW,310,10.3,17.2,55,0.00,,,0.00,239.00,VWS V14.01,2013-10-24 18:25:00,
2013-10-24 13:26:00,41.6,27.1,30.20,WNW,298,10.3,10.3,56,0.00,,,0.00,237.00,VWS V14.01,2013-10-24 18:26:00,
2013-10-24 13:27:00,41.7,26.7,30.20,WNW,299,6.9,10.3,55,0.00,,,0.00,236.00,VWS V14.01,2013-10-24 18:27:00,
2013-10-24 13:30:00,41.9,26.9,30.21,NW,325,9.2,10.3,55,0.00,,,0.00,218.00,VWS V14.01,2013-10-24 18:30:00,
2013-10-24 13:31:00,41.9,26.9,30.21,North,355,11.5,12.6,55,0.00,,,0.00,218.00,VWS V14.01,2013-10-24 18:31:00,
2013-10-24 13:32:00,41.9,26.9,30.21,NW,317,12.6,12.6,55,0.00,,,0.00,218.00,VWS V14.01,2013-10-24 18:32:00,
2013-10-24 13:33:00,41.8,26.8,30.21,NW,325,8.1,13.8,55,0.00,,,0.00,229.00,VWS V14.01,2013-10-24 18:33:00,
2013-10-24 13:37:00,41.6,26.6,30.21,NW,317,11.5,16.1,55,0.00,,,0.00,213.00,VWS V14.01,2013-10-24 18:37:00,
2013-10-24 13:38:00,41.6,25.8,30.21,NW,314,8.1,17.2,53,0.00,,,0.00,204.00,VWS V14.01,2013-10-24 18:38:00,
2013-10-24 13:39:00,41.6,25.8,30.21,NW,317,9.2,17.2,53,0.00,,,0.00,204.00,VWS V14.01,2013-10-24 18:39:00,
2013-10-24 13:40:00,41.6,26.6,30.21,NNW,342,9.2,18.4,55,0.00,,,0.00,200.00,VWS V14.01,2013-10-24 18:40:00,
2013-10-24 13:42:00,41.6,26.2,30.21,WNW,302,11.5,14.9,54,0.00,,,0.00,213.00,VWS V14.01,2013-10-24 18:42:00,
2013-10-24 13:43:00,41.5,26.1,30.21,WNW,296,10.3,14.9,54,0.00,,,0.00,206.00,VWS V14.01,2013-10-24 18:43:00,
2013-10-24 13:44:00,41.5,26.5,30.21,WNW,295,9.2,14.9,55,0.00,,,0.00,195.00,VWS V14.01,2013-10-24 18:44:00,
2013-10-24 13:45:00,41.5,26.1,30.21,NNW,348,12.6,17.2,54,0.00,,,0.00,179.00,VWS V14.01,2013-10-24 18:45:00,
2013-10-24 13:46:00,41.4,26.0,30.21,NNW,347,8.1,14.9,54,0.00,,,0.00,156.00,VWS V14.01,2013-10-24 18:46:00,
2013-10-24 13:48:00,41.3,25.9,30.21,WNW,303,10.3,14.9,54,0.00,,,0.00,151.00,VWS V14.01,2013-10-24 18:48:00,
2013-10-24 13:49:00,41.1,26.2,30.21,NNW,328,8.1,14.9,55,0.00,,,0.00,148.00,VWS V14.01,2013-10-24 18:49:00,
2013-10-24 13:50:00,41.0,26.1,30.21,NNW,327,11.5,14.9,55,0.00,,,0.00,151.00,VWS V14.01,2013-10-24 18:50:00,
2013-10-24 13:51:00,41.0,26.1,30.21,NW,309,11.5,14.9,55,0.00,,,0.00,121.00,VWS V14.01,2013-10-24 18:51:00,
2013-10-24 13:54:00,40.9,25.5,30.21,NW,325,11.5,14.9,54,0.00,,,0.00,121.00,VWS V14.01,2013-10-24 18:54:00,
2013-10-24 13:55:00,40.8,25.0,30.21,WNW,300,9.2,14.9,53,0.00,,,0.00,149.00,VWS V14.01,2013-10-24 18:55:00,
2013-10-24 13:57:00,41.1,26.2,30.21,WNW,301,12.6,16.1,55,0.00,,,0.00,163.00,VWS V14.01,2013-10-24 18:57:00,
2013-10-24 13:58:00,41.3,25.9,30.21,WNW,300,16.1,21.9,54,0.00,,,0.00,188.00,VWS V14.01,2013-10-24 18:58:00,
2013-10-24 13:59:00,41.4,26.0,30.21,NW,311,13.8,21.9,54,0.00,,,0.00,199.00,VWS V14.01,2013-10-24 18:59:00,
2013-10-24 14:00:00,41.6,26.2,30.21,NW,305,10.3,21.9,54,0.00,,,0.00,227.00,VWS V14.01,2013-10-24 19:00:00,
2013-10-24 14:01:00,42.0,27.0,30.21,NNW,333,6.9,13.8,55,0.00,,,0.00,229.00,VWS V14.01,2013-10-24 19:01:00,
2013-10-24 14:03:00,42.8,27.3,30.21,WNW,286,14.9,14.9,54,0.00,,,0.00,199.00,VWS V14.01,2013-10-24 19:03:00,
2013-10-24 14:05:00,43.1,27.6,30.21,West,265,11.5,16.1,54,0.00,,,0.00,199.00,VWS V14.01,2013-10-24 19:05:00,
2013-10-24 14:06:00,43.2,27.2,30.21,WNW,282,9.2,12.6,53,0.00,,,0.00,218.00,VWS V14.01,2013-10-24 19:06:00,
2013-10-24 14:07:00,43.2,27.2,30.21,West,270,8.1,12.6,53,0.00,,,0.00,227.00,VWS V14.01,2013-10-24 19:07:00,
2013-10-24 14:10:00,43.2,26.3,30.21,WNW,302,12.6,13.8,51,0.00,,,0.00,243.00,VWS V14.01,2013-10-24 19:10:00,
2013-10-24 14:11:00,43.1,26.2,30.20,NW,311,10.3,12.6,51,0.00,,,0.00,287.00,VWS V14.01,2013-10-24 19:11:00,
2013-10-24 14:12:00,43.2,26.8,30.20,West,264,16.1,16.1,52,0.00,,,0.00,380.00,VWS V14.01,2013-10-24 19:12:00,
2013-10-24 14:15:00,43.1,26.7,30.21,West,278,10.3,20.7,52,0.00,,,0.00,262.00,VWS V14.01,2013-10-24 19:15:00,
2013-10-24 14:16:00,43.2,27.2,30.21,NW,311,11.5,13.8,53,0.00,,,0.00,276.00,VWS V14.01,2013-10-24 19:16:00,
2013-10-24 14:17:00,43.3,27.8,30.21,NW,304,11.5,16.1,54,0.00,,,0.00,264.00,VWS V14.01,2013-10-24 19:17:00,
2013-10-24 14:18:00,43.4,27.4,30.20,NNW,327,16.1,19.5,53,0.00,,,0.00,239.00,VWS V14.01,2013-10-24 19:18:00,
2013-10-24 14:20:00,43.3,26.9,30.21,WNW,302,10.3,10.3,52,0.00,,,0.00,218.00,VWS V14.01,2013-10-24 19:20:00,
2013-10-24 14:21:00,43.2,26.3,30.21,WNW,297,8.1,11.5,51,0.00,,,0.00,218.00,VWS V14.01,2013-10-24 19:21:00,
2013-10-24 14:22:00,43.2,26.3,30.21,NNW,327,8.1,11.5,51,0.00,,,0.00,218.00,VWS V14.01,2013-10-24 19:22:00,
2013-10-24 14:23:00,43.1,27.1,30.21,WNW,301,5.8,11.5,53,0.00,,,0.00,185.00,VWS V14.01,2013-10-24 19:23:00,
2013-10-24 14:24:00,43.0,26.6,30.21,West,269,5.8,12.6,52,0.00,,,0.00,186.00,VWS V14.01,2013-10-24 19:24:00,
2013-10-24 14:26:00,42.7,26.3,30.21,WNW,292,12.6,18.4,52,0.00,,,0.00,211.00,VWS V14.01,2013-10-24 19:26:00,
2013-10-24 14:27:00,42.6,26.2,30.21,WNW,290,8.1,18.4,52,0.00,,,0.00,207.00,VWS V14.01,2013-10-24 19:27:00,
2013-10-24 14:28:00,42.5,26.1,30.21,West,279,19.5,19.5,52,0.00,,,0.00,200.00,VWS V14.01,2013-10-24 19:28:00,
2013-10-24 14:29:00,42.5,27.0,30.21,WNW,292,4.6,19.5,54,0.00,,,0.00,197.00,VWS V14.01,2013-10-24 19:29:00,
2013-10-24 14:30:00,42.4,26.5,30.21,WNW,300,8.1,19.5,53,0.00,,,0.00,199.00,VWS V14.01,2013-10-24 19:30:00,
2013-10-24 14:32:00,42.4,26.5,30.21,NW,307,12.6,18.4,53,0.00,,,0.00,216.00,VWS V14.01,2013-10-24 19:32:00,
2013-10-24 14:34:00,42.2,26.3,30.21,NNW,327,12.6,18.4,53,0.00,,,0.00,230.00,VWS V14.01,2013-10-24 19:34:00,
2013-10-24 14:35:00,42.2,26.8,30.21,WNW,292,6.9,18.4,54,0.00,,,0.00,248.00,VWS V14.01,2013-10-24 19:35:00,
2013-10-24 14:36:00,42.4,27.0,30.21,WNW,299,11.5,12.6,54,0.00,,,0.00,343.00,VWS V14.01,2013-10-24 19:36:00,
2013-10-24 14:37:00,42.7,27.2,30.21,WNW,295,16.1,16.1,54,0.00,,,0.00,343.00,VWS V14.01,2013-10-24 19:37:00,
2013-10-24 14:38:00,42.7,27.2,30.21,WNW,298,14.9,16.1,54,0.00,,,0.00,230.00,VWS V14.01,2013-10-24 19:38:00,
2013-10-24 14:39:00,42.8,26.9,30.21,NW,317,14.9,17.2,53,0.00,,,0.00,230.00,VWS V14.01,2013-10-24 19:39:00,
2013-10-24 14:41:00,42.7,26.3,30.21,NW,315,11.5,11.5,52,0.00,,,0.00,448.00,VWS V14.01,2013-10-24 19:41:00,
2013-10-24 14:42:00,42.7,26.8,30.21,NW,306,9.2,17.2,53,0.00,,,0.00,186.00,VWS V14.01,2013-10-24 19:42:00,
2013-10-24 14:43:00,42.6,26.2,30.21,NW,309,12.6,17.2,52,0.00,,,0.00,186.00,VWS V14.01,2013-10-24 19:43:00,
2013-10-24 14:46:00,42.4,26.0,30.22,WNW,301,10.3,16.1,52,0.00,,,0.00,178.00,VWS V14.01,2013-10-24 19:46:00,
2013-10-24 14:48:00,42.4,27.0,30.22,WNW,298,13.8,16.1,54,0.00,,,0.00,176.00,VWS V14.01,2013-10-24 19:48:00,
2013-10-24 14:49:00,42.4,27.0,30.22,West,275,14.9,17.2,54,0.00,,,0.00,169.00,VWS V14.01,2013-10-24 19:49:00,
2013-10-24 14:52:00,42.3,26.4,30.22,WNW,298,9.2,16.1,53,0.00,,,0.00,176.00,VWS V14.01,2013-10-24 19:52:00,
2013-10-24 14:53:00,42.2,26.3,30.22,NW,309,9.2,16.1,53,0.00,,,0.00,178.00,VWS V14.01,2013-10-24 19:53:00,
2013-10-24 14:55:00,42.1,26.7,30.22,WNW,303,5.8,16.1,54,0.00,,,0.00,183.00,VWS V14.01,2013-10-24 19:55:00,
2013-10-24 14:56:00,42.1,26.7,30.22,WNW,298,9.2,12.6,54,0.00,,,0.00,179.00,VWS V14.01,2013-10-24 19:56:00,
2013-10-24 14:58:00,42.1,26.2,30.22,NW,305,8.1,12.6,53,0.00,,,0.00,169.00,VWS V14.01,2013-10-24 19:58:00,
2013-10-24 14:59:00,42.1,26.7,30.22,West,279,6.9,12.6,54,0.00,,,0.00,163.00,VWS V14.01,2013-10-24 19:59:00,
2013-10-24 15:00:00,42.1,27.1,30.22,WNW,284,19.5,19.5,55,0.00,,,0.00,163.00,VWS V14.01,2013-10-24 20:00:00,
2013-10-24 15:02:00,42.2,26.8,30.22,NNW,329,9.2,17.2,54,0.00,,,0.00,163.00,VWS V14.01,2013-10-24 20:02:00,
2013-10-24 15:03:00,42.3,26.9,30.22,NW,308,8.1,17.2,54,0.00,,,0.00,193.00,VWS V14.01,2013-10-24 20:03:00,
2013-10-24 15:04:00,42.3,26.9,30.22,WNW,296,9.2,17.2,54,0.00,,,0.00,193.00,VWS V14.01,2013-10-24 20:04:00,
2013-10-24 15:05:00,42.4,27.4,30.22,WNW,298,4.6,17.2,55,0.00,,,0.00,206.00,VWS V14.01,2013-10-24 20:05:00,
2013-10-24 15:08:00,42.9,27.4,30.22,WNW,291,4.6,16.1,54,0.00,,,0.00,178.00,VWS V14.01,2013-10-24 20:08:00,
2013-10-24 15:09:00,43.0,27.5,30.22,West,277,9.2,16.1,54,0.00,,,0.00,178.00,VWS V14.01,2013-10-24 20:09:00,
2013-10-24 15:10:00,43.2,28.1,30.22,West,276,8.1,16.1,55,0.00,,,0.00,174.00,VWS V14.01,2013-10-24 20:10:00,
2013-10-24 15:12:00,43.2,27.7,30.22,NW,316,11.5,11.5,54,0.00,,,0.00,172.00,VWS V14.01,2013-10-24 20:12:00,
2013-10-24 15:13:00,43.1,27.1,30.22,NW,311,5.8,11.5,53,0.00,,,0.00,188.00,VWS V14.01,2013-10-24 20:13:00,
2013-10-24 15:14:00,43.0,27.0,30.22,NW,305,6.9,11.5,53,0.00,,,0.00,188.00,VWS V14.01,2013-10-24 20:14:00,
2013-10-24 15:16:00,42.9,27.9,30.22,NNW,328,9.2,9.2,55,0.00,,,0.00,178.00,VWS V14.01,2013-10-24 20:16:00,
2013-10-24 15:17:00,42.8,26.9,30.22,WNW,289,3.4,12.6,53,0.00,,,0.00,160.00,VWS V14.01,2013-10-24 20:17:00,
2013-10-24 15:19:00,42.7,26.8,30.23,NW,317,12.6,13.8,53,0.00,,,0.00,151.00,VWS V14.01,2013-10-24 20:19:00,
2013-10-24 15:21:00,42.4,26.0,30.23,WNW,300,11.5,16.1,52,0.00,,,0.00,148.00,VWS V14.01,2013-10-24 20:21:00,
2013-10-24 15:22:00,42.3,26.4,30.23,WNW,290,12.6,16.1,53,0.00,,,0.00,144.00,VWS V14.01,2013-10-24 20:22:00,
2013-10-24 15:23:00,42.3,26.9,30.23,NW,313,9.2,16.1,54,0.00,,,0.00,142.00,VWS V14.01,2013-10-24 20:23:00,
2013-10-24 15:24:00,42.2,26.3,30.23,WNW,292,11.5,16.1,53,0.00,,,0.00,139.00,VWS V14.01,2013-10-24 20:24:00,
2013-10-24 15:26:00,42.2,26.3,30.23,WNW,289,9.2,10.3,53,0.00,,,0.00,125.00,VWS V14.01,2013-10-24 20:26:00,
2013-10-24 15:27:00,42.2,26.8,30.23,WNW,295,10.3,11.5,54,0.00,,,0.00,121.00,VWS V14.01,2013-10-24 20:27:00,
2013-10-24 15:29:00,42.2,26.8,30.23,WNW,294,10.3,17.2,54,0.00,,,0.00,121.00,VWS V14.01,2013-10-24 20:29:00,
2013-10-24 15:32:00,42.3,26.9,30.23,WNW,292,11.5,13.8,54,0.00,,,0.00,123.00,VWS V14.01,2013-10-24 20:32:00,
2013-10-24 15:33:00,42.3,26.9,30.23,WNW,292,16.1,17.2,54,0.00,,,0.00,127.00,VWS V14.01,2013-10-24 20:33:00,
2013-10-24 15:34:00,42.3,26.9,30.23,WNW,286,10.3,17.2,54,0.00,,,0.00,128.00,VWS V14.01,2013-10-24 20:34:00,
2013-10-24 15:35:00,42.3,27.3,30.23,NW,319,9.2,9.2,55,0.00,,,0.00,135.00,VWS V14.01,2013-10-24 20:35:00,
2013-10-24 15:37:00,42.4,27.0,30.23,NW,324,11.5,13.8,54,0.00,,,0.00,137.00,VWS V14.01,2013-10-24 20:37:00,
2013-10-24 15:38:00,42.4,26.5,30.23,NW,315,9.2,13.8,53,0.00,,,0.00,137.00,VWS V14.01,2013-10-24 20:38:00,
2013-10-24 15:39:00,42.4,27.0,30.23,WNW,286,8.1,13.8,54,0.00,,,0.00,137.00,VWS V14.01,2013-10-24 20:39:00,
2013-10-24 15:41:00,42.3,26.9,30.23,WNW,294,6.9,10.3,54,0.00,,,0.00,149.00,VWS V14.01,2013-10-24 20:41:00,
2013-10-24 15:43:00,42.4,27.0,30.23,NW,313,12.6,13.8,54,0.00,,,0.00,151.00,VWS V14.01,2013-10-24 20:43:00,
2013-10-24 15:44:00,42.5,26.6,30.23,NW,304,13.8,14.9,53,0.00,,,0.00,148.00,VWS V14.01,2013-10-24 20:44:00,
2013-10-24 15:45:00,42.5,26.6,30.23,WNW,288,12.6,14.9,53,0.00,,,0.00,148.00,VWS V14.01,2013-10-24 20:45:00,
2013-10-24 15:47:00,42.4,26.5,30.23,WNW,298,16.1,17.2,53,0.00,,,0.00,141.00,VWS V14.01,2013-10-24 20:47:00,
2013-10-24 15:49:00,42.4,27.0,30.23,WNW,302,9.2,17.2,54,0.00,,,0.00,130.00,VWS V14.01,2013-10-24 20:49:00,
2013-10-24 15:50:00,42.4,27.4,30.23,WNW,301,12.6,18.4,55,0.00,,,0.00,118.00,VWS V14.01,2013-10-24 20:50:00,
2013-10-24 15:51:00,42.4,27.0,30.23,NW,306,6.9,16.1,54,0.00,,,0.00,116.00,VWS V14.01,2013-10-24 20:51:00,
2013-10-24 15:52:00,42.4,27.0,30.23,NNW,329,9.2,16.1,54,0.00,,,0.00,116.00,VWS V14.01,2013-10-24 20:52:00,
2013-10-24 15:55:00,42.4,27.8,30.23,NW,321,8.1,16.1,56,0.00,,,0.00,113.00,VWS V14.01,2013-10-24 20:55:00,
2013-10-24 15:56:00,42.5,27.9,30.23,WNW,302,8.1,9.2,56,0.00,,,0.00,109.00,VWS V14.01,2013-10-24 20:56:00,
2013-10-24 15:57:00,42.5,27.9,30.23,WNW,302,13.8,16.1,56,0.00,,,0.00,98.00,VWS V14.01,2013-10-24 20:57:00,
2013-10-24 16:00:00,42.4,27.0,30.23,NW,323,9.2,16.1,54,0.00,,,0.00,98.00,VWS V14.01,2013-10-24 21:00:00,
2013-10-24 16:01:00,42.4,27.0,30.23,WNW,299,8.1,8.1,54,0.00,,,0.00,102.00,VWS V14.01,2013-10-24 21:01:00,
2013-10-24 16:02:00,42.3,27.7,30.23,NW,309,8.1,11.5,56,0.00,,,0.00,100.00,VWS V14.01,2013-10-24 21:02:00,
2013-10-24 16:03:00,42.3,27.3,30.23,NW,318,5.8,11.5,55,0.00,,,0.00,98.00,VWS V14.01,2013-10-24 21:03:00,
2013-10-24 16:05:00,42.2,27.6,30.24,West,270,6.9,13.8,56,0.00,,,0.00,93.00,VWS V14.01,2013-10-24 21:05:00,
2013-10-24 16:06:00,42.2,27.2,30.24,NW,309,11.5,14.9,55,0.00,,,0.00,90.00,VWS V14.01,2013-10-24 21:06:00,
2013-10-24 16:07:00,42.2,27.2,30.24,NW,317,14.9,16.1,55,0.00,,,0.00,86.00,VWS V14.01,2013-10-24 21:07:00,
2013-10-24 16:08:00,42.1,27.1,30.23,NNW,346,6.9,16.1,55,0.00,,,0.00,83.00,VWS V14.01,2013-10-24 21:08:00,
2013-10-24 16:10:00,42.0,27.0,30.24,West,274,8.1,16.1,55,0.00,,,0.00,86.00,VWS V14.01,2013-10-24 21:10:00,
2013-10-24 16:11:00,41.9,26.9,30.24,NW,304,12.6,14.9,55,0.00,,,0.00,88.00,VWS V14.01,2013-10-24 21:11:00,
2013-10-24 16:12:00,41.9,26.9,30.24,NW,312,11.5,14.9,55,0.00,,,0.00,91.00,VWS V14.01,2013-10-24 21:12:00,
2013-10-24 16:13:00,41.9,26.9,30.24,WNW,296,10.3,14.9,55,0.00,,,0.00,98.00,VWS V14.01,2013-10-24 21:13:00,
2013-10-24 16:14:00,41.9,26.9,30.24,NW,313,10.3,14.9,55,0.00,,,0.00,98.00,VWS V14.01,2013-10-24 21:14:00,
2013-10-24 16:16:00,41.8,26.8,30.24,WNW,296,8.1,9.2,55,0.00,,,0.00,91.00,VWS V14.01,2013-10-24 21:16:00,
2013-10-24 16:17:00,41.8,26.8,30.24,WNW,296,9.2,11.5,55,0.00,,,0.00,81.00,VWS V14.01,2013-10-24 21:17:00,
2013-10-24 16:18:00,41.8,26.8,30.24,WNW,288,5.8,11.5,55,0.00,,,0.00,76.00,VWS V14.01,2013-10-24 21:18:00,
2013-10-24 16:19:00,41.8,26.8,30.24,WNW,290,5.8,11.5,55,0.00,,,0.00,76.00,VWS V14.01,2013-10-24 21:19:00,
2013-10-24 16:20:00,41.8,26.8,30.24,WNW,300,9.2,11.5,55,0.00,,,0.00,72.00,VWS V14.01,2013-10-24 21:20:00,
2013-10-24 16:22:00,41.8,26.8,30.24,WNW,289,11.5,19.5,55,0.00,,,0.00,69.00,VWS V14.01,2013-10-24 21:22:00,
2013-10-24 16:24:00,41.7,26.7,30.24,NW,312,11.5,19.5,55,0.00,,,0.00,67.00,VWS V14.01,2013-10-24 21:24:00,
2013-10-24 16:25:00,41.7,26.7,30.24,West,276,9.2,19.5,55,0.00,,,0.00,65.00,VWS V14.01,2013-10-24 21:25:00,
2013-10-24 16:26:00,41.7,26.7,30.24,WNW,295,12.6,12.6,55,0.00,,,0.00,65.00,VWS V14.01,2013-10-24 21:26:00,
2013-10-24 16:29:00,41.6,26.6,30.24,NW,315,8.1,18.4,55,0.00,,,0.00,67.00,VWS V14.01,2013-10-24 21:29:00,
2013-10-24 16:30:00,41.6,27.1,30.24,West,281,17.2,18.4,56,0.00,,,0.00,69.00,VWS V14.01,2013-10-24 21:30:00,
2013-10-24 16:31:00,41.5,27.0,30.24,WNW,290,10.3,17.2,56,0.00,,,0.00,72.00,VWS V14.01,2013-10-24 21:31:00,
2013-10-24 16:33:00,41.5,27.4,30.24,WNW,286,10.3,17.2,57,0.00,,,0.00,74.00,VWS V14.01,2013-10-24 21:33:00,
2013-10-24 16:35:00,41.4,27.8,30.24,NW,304,8.1,19.5,58,0.00,,,0.00,83.00,VWS V14.01,2013-10-24 21:35:00,
2013-10-24 16:37:00,41.3,27.6,30.24,West,271,9.2,18.4,58,0.00,,,0.00,81.00,VWS V14.01,2013-10-24 21:37:00,
2013-10-24 16:38:00,41.3,27.2,30.24,WNW,303,6.9,18.4,57,0.00,,,0.00,81.00,VWS V14.01,2013-10-24 21:38:00,
2013-10-24 16:40:00,41.3,27.6,30.24,WNW,302,10.3,18.4,58,0.00,,,0.00,84.00,VWS V14.01,2013-10-24 21:40:00,
2013-10-24 16:41:00,41.3,28.1,30.24,NW,311,14.9,14.9,59,0.00,,,0.00,84.00,VWS V14.01,2013-10-24 21:41:00,
2013-10-24 16:42:00,41.3,28.1,30.25,WNW,303,10.3,14.9,59,0.00,,,0.00,81.00,VWS V14.01,2013-10-24 21:42:00,
2013-10-24 16:43:00,41.3,28.1,30.25,NW,321,8.1,14.9,59,0.00,,,0.00,81.00,VWS V14.01,2013-10-24 21:43:00,
2013-10-24 16:44:00,41.3,27.6,30.25,WNW,288,13.8,16.1,58,0.00,,,0.00,74.00,VWS V14.01,2013-10-24 21:44:00,
2013-10-24 16:46:00,41.2,27.6,30.25,West,275,9.2,10.3,58,0.00,,,0.00,69.00,VWS V14.01,2013-10-24 21:46:00,
2013-10-24 16:48:00,41.2,28.0,30.25,WNW,287,10.3,14.9,59,0.00,,,0.00,63.00,VWS V14.01,2013-10-24 21:48:00,
2013-10-24 16:49:00,41.2,28.0,30.25,WNW,298,11.5,14.9,59,0.00,,,0.00,63.00,VWS V14.01,2013-10-24 21:49:00,
2013-10-24 16:52:00,41.1,27.5,30.25,NW,316,12.6,14.9,58,0.00,,,0.00,56.00,VWS V14.01,2013-10-24 21:52:00,
2013-10-24 16:53:00,41.0,27.4,30.25,WNW,288,12.6,14.9,58,0.00,,,0.00,54.00,VWS V14.01,2013-10-24 21:53:00,
2013-10-24 16:54:00,41.0,27.4,30.25,NW,316,5.8,14.9,58,0.00,,,0.00,53.00,VWS V14.01,2013-10-24 21:54:00,
2013-10-24 16:55:00,41.0,27.4,30.25,NW,323,16.1,16.1,58,0.00,,,0.00,49.00,VWS V14.01,2013-10-24 21:55:00,
2013-10-24 16:56:00,40.9,27.3,30.25,NW,310,8.1,17.2,58,0.00,,,0.00,46.00,VWS V14.01,2013-10-24 21:56:00,
2013-10-24 16:57:00,40.9,27.3,30.25,WNW,298,12.6,18.4,58,0.00,,,0.00,44.00,VWS V14.01,2013-10-24 21:57:00,
2013-10-24 16:59:00,40.8,27.2,30.25,WNW,290,13.8,18.4,58,0.00,,,0.00,42.00,VWS V14.01,2013-10-24 21:59:00,
2013-10-24 17:00:00,40.8,27.2,30.25,NW,306,10.3,10.3,58,0.00,,,0.00,40.00,VWS V14.01,2013-10-24 22:00:00,
2013-10-24 17:01:00,40.7,27.1,30.25,WNW,288,12.6,17.2,58,0.00,,,0.00,39.00,VWS V14.01,2013-10-24 22:01:00,
2013-10-24 17:03:00,40.7,27.1,30.25,NW,309,9.2,17.2,58,0.00,,,0.00,39.00,VWS V14.01,2013-10-24 22:03:00,
2013-10-24 17:04:00,40.7,27.1,30.25,WNW,299,6.9,17.2,58,0.00,,,0.00,37.00,VWS V14.01,2013-10-24 22:04:00,
2013-10-24 17:05:00,40.7,27.5,30.25,NW,321,11.5,14.9,59,0.00,,,0.00,35.00,VWS V14.01,2013-10-24 22:05:00,
2013-10-24 17:06:00,40.7,27.1,30.25,WNW,301,8.1,14.9,58,0.00,,,0.00,33.00,VWS V14.01,2013-10-24 22:06:00,
2013-10-24 17:08:00,40.6,27.4,30.26,WNW,290,11.5,18.4,59,0.00,,,0.00,30.00,VWS V14.01,2013-10-24 22:08:00,
2013-10-24 17:09:00,40.6,27.4,30.26,NW,311,12.6,18.4,59,0.00,,,0.00,28.00,VWS V14.01,2013-10-24 22:09:00,
2013-10-24 17:10:00,40.6,27.4,30.25,NW,308,13.8,18.4,59,0.00,,,0.00,26.00,VWS V14.01,2013-10-24 22:10:00,
2013-10-24 17:11:00,40.6,27.4,30.25,NW,304,12.6,12.6,59,0.00,,,0.00,25.00,VWS V14.01,2013-10-24 22:11:00,
2013-10-24 17:12:00,40.6,27.4,30.26,NW,313,13.8,13.8,59,0.00,,,0.00,25.00,VWS V14.01,2013-10-24 22:12:00,
2013-10-24 17:14:00,40.5,27.3,30.26,West,271,10.3,13.8,59,0.00,,,0.00,21.00,VWS V14.01,2013-10-24 22:14:00,
2013-10-24 17:15:00,40.5,27.7,30.26,WNW,302,10.3,14.9,60,0.00,,,0.00,21.00,VWS V14.01,2013-10-24 22:15:00,
2013-10-24 17:16:00,40.4,27.6,30.26,NW,314,17.2,18.4,60,0.00,,,0.00,21.00,VWS V14.01,2013-10-24 22:16:00,
2013-10-24 17:17:00,40.4,27.6,30.26,NW,309,10.3,18.4,60,0.00,,,0.00,21.00,VWS V14.01,2013-10-24 22:17:00,
2013-10-24 17:18:00,40.4,27.6,30.26,NW,313,12.6,18.4,60,0.00,,,0.00,19.00,VWS V14.01,2013-10-24 22:18:00,
2013-10-24 17:19:00,40.4,27.2,30.26,NW,312,12.6,18.4,59,0.00,,,0.00,18.00,VWS V14.01,2013-10-24 22:19:00,
2013-10-24 17:21:00,40.3,27.1,30.26,WNW,289,9.2,12.6,59,0.00,,,0.00,16.00,VWS V14.01,2013-10-24 22:21:00,
2013-10-24 17:22:00,40.3,27.1,30.26,NW,308,6.9,12.6,59,0.00,,,0.00,16.00,VWS V14.01,2013-10-24 22:22:00,
2013-10-24 17:24:00,40.2,27.4,30.26,NW,308,5.8,12.6,60,0.00,,,0.00,16.00,VWS V14.01,2013-10-24 22:24:00,
2013-10-24 17:25:00,40.2,27.4,30.26,WNW,302,13.8,16.1,60,0.00,,,0.00,16.00,VWS V14.01,2013-10-24 22:25:00,
2013-10-24 17:27:00,40.2,27.0,30.26,WNW,303,11.5,13.8,59,0.00,,,0.00,14.00,VWS V14.01,2013-10-24 22:27:00,
2013-10-24 17:28:00,40.2,27.0,30.26,WNW,288,10.3,13.8,59,0.00,,,0.00,14.00,VWS V14.01,2013-10-24 22:28:00,
2013-10-24 17:30:00,40.1,26.9,30.27,NW,310,5.8,13.8,59,0.00,,,0.00,14.00,VWS V14.01,2013-10-24 22:30:00,
2013-10-24 17:32:00,40.1,26.9,30.27,NW,305,9.2,13.8,59,0.00,,,0.00,12.00,VWS V14.01,2013-10-24 22:32:00,
2013-10-24 17:33:00,40.1,26.9,30.27,WNW,300,9.2,13.8,59,0.00,,,0.00,11.00,VWS V14.01,2013-10-24 22:33:00,
2013-10-24 17:34:00,40.0,26.8,30.27,NW,306,5.8,13.8,59,0.00,,,0.00,11.00,VWS V14.01,2013-10-24 22:34:00,
2013-10-24 17:36:00,40.0,26.8,30.27,NNW,339,4.6,10.3,59,0.00,,,0.00,9.00,VWS V14.01,2013-10-24 22:36:00,
2013-10-24 17:37:00,40.0,26.8,30.27,NW,317,5.8,10.3,59,0.00,,,0.00,9.00,VWS V14.01,2013-10-24 22:37:00,
2013-10-24 17:38:00,40.0,26.8,30.27,NNW,331,5.8,10.3,59,0.00,,,0.00,7.00,VWS V14.01,2013-10-24 22:38:00,
2013-10-24 17:39:00,39.9,26.8,30.27,NW,319,11.5,12.6,59,0.00,,,0.00,7.00,VWS V14.01,2013-10-24 22:39:00,
2013-10-24 17:41:00,39.8,26.7,30.27,NW,326,5.8,8.1,59,0.00,,,0.00,5.00,VWS V14.01,2013-10-24 22:41:00,
2013-10-24 17:42:00,39.8,26.7,30.27,NW,321,5.8,8.1,59,0.00,,,0.00,5.00,VWS V14.01,2013-10-24 22:42:00,
2013-10-24 17:43:00,39.8,26.7,30.27,NW,315,6.9,8.1,59,0.00,,,0.00,5.00,VWS V14.01,2013-10-24 22:43:00,
2013-10-24 17:44:00,39.8,26.7,30.27,NW,314,4.6,10.3,59,0.00,,,0.00,5.00,VWS V14.01,2013-10-24 22:44:00,
2013-10-24 17:45:00,39.8,26.7,30.27,North,350,8.1,10.3,59,0.00,,,0.00,0.00,VWS V14.01,2013-10-24 22:45:00,
2013-10-24 17:46:00,39.8,26.7,30.27,WNW,302,8.1,8.1,59,0.00,,,0.00,0.00,VWS V14.01,2013-10-24 22:46:00,
2013-10-24 17:48:00,39.7,27.0,30.27,NW,319,11.5,16.1,60,0.00,,,0.00,0.00,VWS V14.01,2013-10-24 22:48:00,
2013-10-24 17:49:00,39.7,26.6,30.27,NW,304,11.5,16.1,59,0.00,,,0.00,0.00,VWS V14.01,2013-10-24 22:49:00,
2013-10-24 17:51:00,39.7,26.6,30.27,NW,323,8.1,10.3,59,0.00,,,0.00,0.00,VWS V14.01,2013-10-24 22:51:00,
2013-10-24 17:52:00,39.7,27.0,30.27,NW,325,5.8,10.3,60,0.00,,,0.00,0.00,VWS V14.01,2013-10-24 22:52:00,
2013-10-24 17:54:00,39.7,27.0,30.27,NW,309,6.9,10.3,60,0.00,,,0.00,0.00,VWS V14.01,2013-10-24 22:54:00,
2013-10-24 17:55:00,39.7,27.0,30.27,WNW,297,9.2,9.2,60,0.00,,,0.00,0.00,VWS V14.01,2013-10-24 22:55:00,
2013-10-24 17:57:00,39.7,27.0,30.28,WNW,302,9.2,9.2,60,0.00,,,0.00,0.00,VWS V14.01,2013-10-24 22:57:00,
2013-10-24 17:59:00,39.7,27.0,30.28,NW,321,11.5,11.5,60,0.00,,,0.00,0.00,VWS V14.01,2013-10-24 22:59:00,
2013-10-24 18:00:00,39.7,27.0,30.27,NW,316,6.9,11.5,60,0.00,,,0.00,0.00,VWS V14.01,2013-10-24 23:00:00,
2013-10-24 18:03:00,39.6,27.3,30.28,NW,311,6.9,8.1,61,0.00,,,0.00,0.00,VWS V14.01,2013-10-24 23:03:00,
2013-10-24 18:04:00,39.6,27.3,30.28,NW,314,4.6,8.1,61,0.00,,,0.00,0.00,VWS V14.01,2013-10-24 23:04:00,
2013-10-24 18:05:00,39.6,27.3,30.28,WNW,302,4.6,8.1,61,0.00,,,0.00,0.00,VWS V14.01,2013-10-24 23:05:00,
2013-10-24 18:06:00,39.6,27.3,30.28,WNW,303,5.8,5.8,61,0.00,,,0.00,0.00,VWS V14.01,2013-10-24 23:06:00,
2013-10-24 18:08:00,39.6,27.3,30.28,NW,313,4.6,6.9,61,0.00,,,0.00,0.00,VWS V14.01,2013-10-24 23:08:00,
2013-10-24 18:10:00,39.5,27.2,30.28,NW,306,5.8,6.9,61,0.00,,,0.00,0.00,VWS V14.01,2013-10-24 23:10:00,
2013-10-24 18:11:00,39.5,27.2,30.28,NW,311,5.8,6.9,61,0.00,,,0.00,0.00,VWS V14.01,2013-10-24 23:11:00,
2013-10-24 18:12:00,39.5,27.2,30.28,NW,323,4.6,6.9,61,0.00,,,0.00,0.00,VWS V14.01,2013-10-24 23:12:00,
2013-10-24 18:13:00,39.5,27.2,30.28,NW,311,6.9,6.9,61,0.00,,,0.00,0.00,VWS V14.01,2013-10-24 23:13:00,
2013-10-24 18:16:00,39.4,27.5,30.28,NW,306,3.4,8.1,62,0.00,,,0.00,0.00,VWS V14.01,2013-10-24 23:16:00,
2013-10-24 18:17:00,39.4,27.5,30.28,NW,305,4.6,8.1,62,0.00,,,0.00,0.00,VWS V14.01,2013-10-24 23:17:00,
2013-10-24 18:18:00,39.4,27.5,30.28,NW,304,3.4,8.1,62,0.00,,,0.00,0.00,VWS V14.01,2013-10-24 23:18:00,
2013-10-24 18:20:00,39.4,27.5,30.28,NW,304,5.8,8.1,62,0.00,,,0.00,0.00,VWS V14.01,2013-10-24 23:20:00,
2013-10-24 18:21:00,39.4,27.5,30.28,WNW,303,3.4,4.6,62,0.00,,,0.00,0.00,VWS V14.01,2013-10-24 23:21:00,
2013-10-24 18:22:00,39.4,27.5,30.28,WNW,303,4.6,4.6,62,0.00,,,0.00,0.00,VWS V14.01,2013-10-24 23:22:00,
2013-10-24 18:23:00,39.4,27.5,30.28,WNW,302,6.9,6.9,62,0.00,,,0.00,0.00,VWS V14.01,2013-10-24 23:23:00,
2013-10-24 18:24:00,39.4,27.9,30.29,WNW,303,4.6,8.1,63,0.00,,,0.00,0.00,VWS V14.01,2013-10-24 23:24:00,
2013-10-24 18:25:00,39.4,27.9,30.29,WNW,302,6.9,8.1,63,0.00,,,0.00,0.00,VWS V14.01,2013-10-24 23:25:00,
2013-10-24 18:27:00,39.4,27.9,30.28,WNW,302,5.8,9.2,63,0.00,,,0.00,0.00,VWS V14.01,2013-10-24 23:27:00,
2013-10-24 18:28:00,39.4,27.9,30.29,WNW,303,2.3,9.2,63,0.00,,,0.00,0.00,VWS V14.01,2013-10-24 23:28:00,
2013-10-24 18:29:00,39.4,27.9,30.28,WNW,303,4.6,9.2,63,0.00,,,0.00,0.00,VWS V14.01,2013-10-24 23:29:00,
2013-10-24 18:30:00,39.4,27.9,30.29,WNW,303,4.6,9.2,63,0.00,,,0.00,0.00,VWS V14.01,2013-10-24 23:30:00,
2013-10-24 18:31:00,39.4,27.9,30.29,WNW,301,3.4,4.6,63,0.00,,,0.00,0.00,VWS V14.01,2013-10-24 23:31:00,
2013-10-24 18:33:00,39.3,27.8,30.29,WNW,290,3.4,6.9,63,0.00,,,0.00,0.00,VWS V14.01,2013-10-24 23:33:00,
2013-10-24 18:34:00,39.3,27.8,30.29,WNW,288,4.6,6.9,63,0.00,,,0.00,0.00,VWS V14.01,2013-10-24 23:34:00,
2013-10-24 18:35:00,39.3,28.2,30.29,WNW,287,3.4,6.9,64,0.00,,,0.00,0.00,VWS V14.01,2013-10-24 23:35:00,
2013-10-24 18:37:00,39.3,28.2,30.29,WNW,291,3.4,6.9,64,0.00,,,0.00,0.00,VWS V14.01,2013-10-24 23:37:00,
2013-10-24 18:39:00,39.3,28.2,30.29,WNW,292,1.1,6.9,64,0.00,,,0.00,0.00,VWS V14.01,2013-10-24 23:39:00,
2013-10-24 18:41:00,39.3,27.8,30.29,WNW,286,5.8,8.1,63,0.00,,,0.00,0.00,VWS V14.01,2013-10-24 23:41:00,
2013-10-24 18:42:00,39.3,27.8,30.29,WNW,286,5.8,8.1,63,0.00,,,0.00,0.00,VWS V14.01,2013-10-24 23:42:00,
2013-10-24 18:43:00,39.3,27.8,30.29,WNW,286,5.8,8.1,63,0.00,,,0.00,0.00,VWS V14.01,2013-10-24 23:43:00,
2013-10-24 18:44:00,39.2,28.1,30.29,WNW,286,5.8,8.1,64,0.00,,,0.00,0.00,VWS V14.01,2013-10-24 23:44:00,
2013-10-24 18:45:00,39.2,28.1,30.29,WNW,284,9.2,9.2,64,0.00,,,0.00,0.00,VWS V14.01,2013-10-24 23:45:00,
2013-10-24 18:46:00,39.2,28.1,30.29,WNW,291,4.6,9.2,64,0.00,,,0.00,0.00,VWS V14.01,2013-10-24 23:46:00,
2013-10-24 18:48:00,39.2,28.1,30.29,West,277,4.6,9.2,64,0.00,,,0.00,0.00,VWS V14.01,2013-10-24 23:48:00,
2013-10-24 18:49:00,39.2,28.1,30.29,West,277,4.6,9.2,64,0.00,,,0.00,0.00,VWS V14.01,2013-10-24 23:49:00,
2013-10-24 18:50:00,39.2,28.1,30.29,WNW,289,5.8,5.8,64,0.00,,,0.00,0.00,VWS V14.01,2013-10-24 23:50:00,
2013-10-24 18:51:00,39.2,28.1,30.29,WNW,292,6.9,6.9,64,0.00,,,0.00,0.00,VWS V14.01,2013-10-24 23:51:00,
2013-10-24 18:52:00,39.2,28.1,30.29,WNW,292,3.4,6.9,64,0.00,,,0.00,0.00,VWS V14.01,2013-10-24 23:52:00,
2013-10-24 18:53:00,39.2,28.1,30.29,WNW,290,2.3,6.9,64,0.00,,,0.00,0.00,VWS V14.01,2013-10-24 23:53:00,
2013-10-24 18:54:00,39.2,28.1,30.29,West,271,5.8,8.1,64,0.00,,,0.00,0.00,VWS V14.01,2013-10-24 23:54:00,
2013-10-24 18:56:00,39.2,28.1,30.29,WNW,295,2.3,5.8,64,0.00,,,0.00,0.00,VWS V14.01,2013-10-24 23:56:00,
2013-10-24 18:57:00,39.2,28.1,30.29,WNW,295,3.4,5.8,64,0.00,,,0.00,0.00,VWS V14.01,2013-10-24 23:57:00,
2013-10-24 18:58:00,39.2,28.1,30.29,WNW,292,4.6,5.8,64,0.00,,,0.00,0.00,VWS V14.01,2013-10-24 23:58:00,
2013-10-24 18:59:00,39.2,28.1,30.29,WNW,282,5.8,6.9,64,0.00,,,0.00,0.00,VWS V14.01,2013-10-24 23:59:00,
2013-10-24 19:00:00,39.2,28.1,30.29,WNW,288,4.6,8.1,64,0.00,,,0.00,0.00,VWS V14.01,2013-10-25 00:00:00,
2013-10-24 19:02:00,39.2,28.1,30.29,WNW,290,4.6,6.9,64,0.00,,,0.00,0.00,VWS V14.01,2013-10-25 00:02:00,
2013-10-24 19:03:00,39.2,28.1,30.29,West,270,4.6,6.9,64,0.00,,,0.00,0.00,VWS V14.01,2013-10-25 00:03:00,
2013-10-24 19:04:00,39.2,28.1,30.29,West,272,2.3,6.9,64,0.00,,,0.00,0.00,VWS V14.01,2013-10-25 00:04:00,
2013-10-24 19:05:00,39.2,28.1,30.30,West,275,3.4,6.9,64,0.00,,,0.00,0.00,VWS V14.01,2013-10-25 00:05:00,
2013-10-24 19:06:00,39.2,28.1,30.29,WNW,288,4.6,4.6,64,0.00,,,0.00,0.00,VWS V14.01,2013-10-25 00:06:00,
2013-10-24 19:08:00,39.2,28.1,30.30,West,271,3.4,8.1,64,0.00,,,0.00,0.00,VWS V14.01,2013-10-25 00:08:00,
2013-10-24 19:09:00,39.2,28.1,30.30,WNW,283,4.6,8.1,64,0.00,,,0.00,0.00,VWS V14.01,2013-10-25 00:09:00,
2013-10-24 19:10:00,39.2,28.1,30.30,WNW,282,6.9,9.2,64,0.00,,,0.00,0.00,VWS V14.01,2013-10-25 00:10:00,
2013-10-24 19:11:00,39.2,28.1,30.29,NW,305,6.9,6.9,64,0.00,,,0.00,0.00,VWS V14.01,2013-10-25 00:11:00,
2013-10-24 19:12:00,39.2,28.1,30.30,WNW,291,5.8,6.9,64,0.00,,,0.00,0.00,VWS V14.01,2013-10-25 00:12:00,
2013-10-24 19:13:00,39.2,28.1,30.30,West,279,2.3,11.5,64,0.00,,,0.00,0.00,VWS V14.01,2013-10-25 00:13:00,
2013-10-24 19:15:00,39.2,28.1,30.30,WNW,299,5.8,11.5,64,0.00,,,0.00,0.00,VWS V14.01,2013-10-25 00:15:00,
2013-10-24 19:16:00,39.2,28.1,30.30,West,274,8.1,10.3,64,0.00,,,0.00,0.00,VWS V14.01,2013-10-25 00:16:00,
2013-10-24 19:17:00,39.2,28.1,30.30,NW,310,8.1,10.3,64,0.00,,,0.00,0.00,VWS V14.01,2013-10-25 00:17:00,
2013-10-24 19:18:00,39.2,28.1,30.30,West,279,5.8,12.6,64,0.00,,,0.00,0.00,VWS V14.01,2013-10-25 00:18:00,
2013-10-24 19:20:00,39.2,28.1,30.30,WNW,297,5.8,12.6,64,0.00,,,0.00,0.00,VWS V14.01,2013-10-25 00:20:00,
2013-10-24 19:21:00,39.2,28.1,30.30,WNW,290,6.9,6.9,64,0.00,,,0.00,0.00,VWS V14.01,2013-10-25 00:21:00,
2013-10-24 19:23:00,39.2,28.1,30.30,WNW,285,8.1,12.6,64,0.00,,,0.00,0.00,VWS V14.01,2013-10-25 00:23:00,
2013-10-24 19:26:00,39.2,28.1,30.30,West,271,4.6,8.1,64,0.00,,,0.00,0.00,VWS V14.01,2013-10-25 00:26:00,
2013-10-24 19:27:00,39.2,28.1,30.30,West,275,4.6,8.1,64,0.00,,,0.00,0.00,VWS V14.01,2013-10-25 00:27:00,
2013-10-24 19:28:00,39.2,28.1,30.30,WNW,293,4.6,8.1,64,0.00,,,0.00,0.00,VWS V14.01,2013-10-25 00:28:00,
2013-10-24 19:29:00,39.1,28.0,30.30,WNW,294,3.4,8.1,64,0.00,,,0.00,0.00,VWS V14.01,2013-10-25 00:29:00,
2013-10-24 19:31:00,39.2,28.1,30.30,West,279,6.9,6.9,64,0.00,,,0.00,0.00,VWS V14.01,2013-10-25 00:31:00,
2013-10-24 19:33:00,39.1,28.3,30.31,WNW,289,3.4,9.2,65,0.00,,,0.00,0.00,VWS V14.01,2013-10-25 00:33:00,
2013-10-24 19:34:00,39.1,28.3,30.31,WNW,299,6.9,9.2,65,0.00,,,0.00,0.00,VWS V14.01,2013-10-25 00:34:00,
2013-10-24 19:35:00,39.1,28.3,30.31,West,281,5.8,9.2,65,0.00,,,0.00,0.00,VWS V14.01,2013-10-25 00:35:00,
2013-10-24 19:36:00,39.1,28.3,30.31,NW,316,8.1,8.1,65,0.00,,,0.00,0.00,VWS V14.01,2013-10-25 00:36:00,
2013-10-24 19:38:00,39.1,28.3,30.31,NW,305,6.9,9.2,65,0.00,,,0.00,0.00,VWS V14.01,2013-10-25 00:38:00,
2013-10-24 19:39:00,39.1,28.3,30.31,NW,305,6.9,9.2,65,0.00,,,0.00,0.00,VWS V14.01,2013-10-25 00:39:00,
2013-10-24 19:40:00,39.1,28.3,30.31,NW,322,5.8,9.2,65,0.00,,,0.00,0.00,VWS V14.01,2013-10-25 00:40:00,
2013-10-24 19:41:00,39.1,28.3,30.31,NW,309,5.8,8.1,65,0.00,,,0.00,0.00,VWS V14.01,2013-10-25 00:41:00,
2013-10-24 19:43:00,39.1,28.3,30.31,NW,308,8.1,8.1,65,0.00,,,0.00,0.00,VWS V14.01,2013-10-25 00:43:00,
2013-10-24 19:44:00,39.1,28.3,30.31,NW,305,6.9,10.3,65,0.00,,,0.00,0.00,VWS V14.01,2013-10-25 00:44:00,
2013-10-24 19:45:00,39.1,28.3,30.31,WNW,299,6.9,10.3,65,0.00,,,0.00,0.00,VWS V14.01,2013-10-25 00:45:00,
2013-10-24 19:48:00,39.1,28.3,30.31,WNW,289,2.3,9.2,65,0.00,,,0.00,0.00,VWS V14.01,2013-10-25 00:48:00,
2013-10-24 19:49:00,39.1,28.3,30.31,West,281,6.9,9.2,65,0.00,,,0.00,0.00,VWS V14.01,2013-10-25 00:49:00,
2013-10-24 19:50:00,39.1,28.3,30.31,WNW,298,4.6,11.5,65,0.00,,,0.00,0.00,VWS V14.01,2013-10-25 00:50:00,
2013-10-24 19:51:00,39.0,28.2,30.31,WNW,282,8.1,10.3,65,0.00,,,0.00,0.00,VWS V14.01,2013-10-25 00:51:00,
2013-10-24 19:53:00,39.0,28.2,30.31,WNW,300,4.6,10.3,65,0.00,,,0.00,0.00,VWS V14.01,2013-10-25 00:53:00,
2013-10-24 19:54:00,39.0,28.2,30.31,WNW,288,8.1,11.5,65,0.00,,,0.00,0.00,VWS V14.01,2013-10-25 00:54:00,
2013-10-24 19:55:00,39.0,28.2,30.31,WNW,289,3.4,4.6,65,0.00,,,0.00,0.00,VWS V14.01,2013-10-25 00:55:00,
2013-10-24 19:56:00,39.0,28.2,30.31,WNW,296,4.6,4.6,65,0.00,,,0.00,0.00,VWS V14.01,2013-10-25 00:56:00,
2013-10-24 19:58:00,39.0,28.2,30.31,WNW,296,8.1,9.2,65,0.00,,,0.00,0.00,VWS V14.01,2013-10-25 00:58:00,
2013-10-24 19:59:00,39.0,28.2,30.31,WNW,284,5.8,9.2,65,0.00,,,0.00,0.00,VWS V14.01,2013-10-25 00:59:00,
2013-10-24 20:00:00,39.0,28.2,30.31,West,276,4.6,4.6,65,0.00,,,0.00,0.00,VWS V14.01,2013-10-25 01:00:00,
2013-10-24 20:01:00,39.0,28.2,30.31,NW,313,5.8,5.8,65,0.00,,,0.00,0.00,VWS V14.01,2013-10-25 01:01:00,
2013-10-24 20:02:00,39.0,28.2,30.31,WNW,294,3.4,5.8,65,0.00,,,0.00,0.00,VWS V14.01,2013-10-25 01:02:00,
2013-10-24 20:04:00,39.0,28.2,30.31,WNW,286,8.1,8.1,65,0.00,,,0.00,0.00,VWS V14.01,2013-10-25 01:04:00,
2013-10-24 20:05:00,38.9,28.1,30.31,WSW,252,4.6,10.3,65,0.00,,,0.00,0.00,VWS V14.01,2013-10-25 01:05:00,
2013-10-24 20:06:00,38.9,28.1,30.31,West,277,5.8,8.1,65,0.00,,,0.00,0.00,VWS V14.01,2013-10-25 01:06:00,
2013-10-24 20:07:00,38.9,28.1,30.31,West,263,4.6,8.1,65,0.00,,,0.00,0.00,VWS V14.01,2013-10-25 01:07:00,
2013-10-24 20:08:00,38.9,28.1,30.31,WNW,286,4.6,8.1,65,0.00,,,0.00,0.00,VWS V14.01,2013-10-25 01:08:00,
2013-10-24 20:09:00,38.9,28.1,30.31,West,281,4.6,8.1,65,0.00,,,0.00,0.00,VWS V14.01,2013-10-25 01:09:00,
2013-10-24 20:11:00,38.9,28.1,30.31,WNW,286,3.4,5.8,65,0.00,,,0.00,0.00,VWS V14.01,2013-10-25 01:11:00,
2013-10-24 20:12:00,38.9,28.1,30.31,WNW,299,4.6,6.9,65,0.00,,,0.00,0.00,VWS V14.01,2013-10-25 01:12:00,
2013-10-24 20:14:00,38.9,28.1,30.31,WNW,298,3.4,8.1,65,0.00,,,0.00,0.00,VWS V14.01,2013-10-25 01:14:00,
2013-10-24 20:15:00,38.9,28.1,30.31,NW,307,4.6,8.1,65,0.00,,,0.00,0.00,VWS V14.01,2013-10-25 01:15:00,
2013-10-24 20:16:00,38.8,28.1,30.31,WNW,285,4.6,5.8,65,0.00,,,0.00,0.00,VWS V14.01,2013-10-25 01:16:00,
2013-10-24 20:19:00,38.8,28.4,30.31,WNW,301,5.8,8.1,66,0.00,,,0.00,0.00,VWS V14.01,2013-10-25 01:19:00,
2013-10-24 20:20:00,38.8,28.4,30.31,NW,307,5.8,8.1,66,0.00,,,0.00,0.00,VWS V14.01,2013-10-25 01:20:00,
2013-10-24 20:21:00,38.7,28.3,30.31,WNW,301,3.4,5.8,66,0.00,,,0.00,0.00,VWS V14.01,2013-10-25 01:21:00,
2013-10-24 20:24:00,38.7,28.3,30.31,NW,313,4.6,6.9,66,0.00,,,0.00,0.00,VWS V14.01,2013-10-25 01:24:00,
2013-10-24 20:25:00,38.6,28.2,30.31,WNW,293,4.6,6.9,66,0.00,,,0.00,0.00,VWS V14.01,2013-10-25 01:25:00,
2013-10-24 20:26:00,38.6,28.2,30.31,NW,306,5.8,5.8,66,0.00,,,0.00,0.00,VWS V14.01,2013-10-25 01:26:00,
2013-10-24 20:27:00,38.6,28.2,30.31,NW,314,5.8,6.9,66,0.00,,,0.00,0.00,VWS V14.01,2013-10-25 01:27:00,
2013-10-24 20:30:00,38.6,28.2,30.31,WNW,294,6.9,9.2,66,0.00,,,0.00,0.00,VWS V14.01,2013-10-25 01:30:00,
2013-10-24 20:31:00,38.5,28.1,30.31,WNW,287,5.8,5.8,66,0.00,,,0.00,0.00,VWS V14.01,2013-10-25 01:31:00,
2013-10-24 20:32:00,38.5,28.1,30.31,West,269,5.8,5.8,66,0.00,,,0.00,0.00,VWS V14.01,2013-10-25 01:32:00,
2013-10-24 20:34:00,38.4,28.0,30.31,NW,305,5.8,6.9,66,0.00,,,0.00,0.00,VWS V14.01,2013-10-25 01:34:00,
2013-10-24 20:35:00,38.4,28.0,30.31,WNW,297,4.6,6.9,66,0.00,,,0.00,0.00,VWS V14.01,2013-10-25 01:35:00,
2013-10-24 20:36:00,38.4,28.0,30.31,NW,307,5.8,5.8,66,0.00,,,0.00,0.00,VWS V14.01,2013-10-25 01:36:00,
2013-10-24 20:37:00,38.4,28.0,30.32,WNW,303,6.9,6.9,66,0.00,,,0.00,0.00,VWS V14.01,2013-10-25 01:37:00,
2013-10-24 20:38:00,38.3,28.0,30.32,WNW,303,3.4,6.9,66,0.00,,,0.00,0.00,VWS V14.01,2013-10-25 01:38:00,
2013-10-24 20:40:00,38.3,28.0,30.32,NW,308,4.6,9.2,66,0.00,,,0.00,0.00,VWS V14.01,2013-10-25 01:40:00,
2013-10-24 20:41:00,38.2,28.2,30.31,WNW,291,2.3,4.6,67,0.00,,,0.00,0.00,VWS V14.01,2013-10-25 01:41:00,
2013-10-24 20:42:00,38.2,28.2,30.31,WNW,291,3.4,4.6,67,0.00,,,0.00,0.00,VWS V14.01,2013-10-25 01:42:00,
2013-10-24 20:43:00,38.2,28.2,30.31,WNW,292,2.3,4.6,67,0.00,,,0.00,0.00,VWS V14.01,2013-10-25 01:43:00,
2013-10-24 20:44:00,38.2,28.2,30.32,WNW,292,3.4,4.6,67,0.00,,,0.00,0.00,VWS V14.01,2013-10-25 01:44:00,
2013-10-24 20:46:00,38.1,28.1,30.32,WNW,292,4.6,4.6,67,0.00,,,0.00,0.00,VWS V14.01,2013-10-25 01:46:00,
2013-10-24 20:47:00,38.1,28.1,30.32,WNW,292,3.4,4.6,67,0.00,,,0.00,0.00,VWS V14.01,2013-10-25 01:47:00,
2013-10-24 20:48:00,38.1,28.1,30.32,WNW,282,5.8,6.9,67,0.00,,,0.00,0.00,VWS V14.01,2013-10-25 01:48:00,
2013-10-24 20:49:00,38.1,28.1,30.32,WNW,292,3.4,6.9,67,0.00,,,0.00,0.00,VWS V14.01,2013-10-25 01:49:00,
2013-10-24 20:51:00,38.0,28.0,30.32,WNW,294,6.9,6.9,67,0.00,,,0.00,0.00,VWS V14.01,2013-10-25 01:51:00,
2013-10-24 20:52:00,38.0,28.4,30.32,WNW,286,3.4,6.9,68,0.00,,,0.00,0.00,VWS V14.01,2013-10-25 01:52:00,
2013-10-24 20:53:00,38.0,28.4,30.32,WNW,287,3.4,6.9,68,0.00,,,0.00,0.00,VWS V14.01,2013-10-25 01:53:00,
2013-10-24 20:54:00,38.0,28.4,30.32,WNW,288,2.3,6.9,68,0.00,,,0.00,0.00,VWS V14.01,2013-10-25 01:54:00,
2013-10-24 20:57:00,37.9,28.3,30.32,WNW,289,4.6,5.8,68,0.00,,,0.00,0.00,VWS V14.01,2013-10-25 01:57:00,
2013-10-24 20:58:00,37.9,28.3,30.32,West,280,5.8,5.8,68,0.00,,,0.00,0.00,VWS V14.01,2013-10-25 01:58:00,
2013-10-24 20:59:00,37.9,28.3,30.32,West,269,2.3,5.8,68,0.00,,,0.00,0.00,VWS V14.01,2013-10-25 01:59:00,
2013-10-24 21:00:00,37.9,28.3,30.32,NW,304,4.6,8.1,68,0.00,,,0.00,0.00,VWS V14.01,2013-10-25 02:00:00,
2013-10-24 21:02:00,37.9,28.3,30.32,WNW,294,3.4,5.8,68,0.00,,,0.00,0.00,VWS V14.01,2013-10-25 02:02:00,
2013-10-24 21:03:00,37.9,28.3,30.32,WNW,303,4.6,5.8,68,0.00,,,0.00,0.00,VWS V14.01,2013-10-25 02:03:00,
2013-10-24 21:05:00,37.9,28.3,30.32,NW,304,5.8,6.9,68,0.00,,,0.00,0.00,VWS V14.01,2013-10-25 02:05:00,
2013-10-24 21:07:00,37.9,28.3,30.32,WNW,290,4.6,8.1,68,0.00,,,0.00,0.00,VWS V14.01,2013-10-25 02:07:00,
2013-10-24 21:08:00,37.8,28.2,30.32,WNW,292,4.6,8.1,68,0.00,,,0.00,0.00,VWS V14.01,2013-10-25 02:08:00,
2013-10-24 21:09:00,37.8,28.2,30.32,WNW,290,4.6,8.1,68,0.00,,,0.00,0.00,VWS V14.01,2013-10-25 02:09:00,
2013-10-24 21:10:00,37.8,28.2,30.32,WNW,292,4.6,8.1,68,0.00,,,0.00,0.00,VWS V14.01,2013-10-25 02:10:00,
2013-10-24 21:12:00,37.8,28.6,30.32,WNW,288,5.8,8.1,69,0.00,,,0.00,0.00,VWS V14.01,2013-10-25 02:12:00,
2013-10-24 21:13:00,37.8,28.6,30.32,WNW,302,5.8,8.1,69,0.00,,,0.00,0.00,VWS V14.01,2013-10-25 02:13:00,
2013-10-24 21:14:00,37.8,28.6,30.33,WNW,294,3.4,8.1,69,0.00,,,0.00,0.00,VWS V14.01,2013-10-25 02:14:00,
2013-10-24 21:15:00,37.8,28.6,30.33,WNW,303,5.8,8.1,69,0.00,,,0.00,0.00,VWS V14.01,2013-10-25 02:15:00,
2013-10-24 21:16:00,37.8,28.6,30.33,WNW,298,4.6,4.6,69,0.00,,,0.00,0.00,VWS V14.01,2013-10-25 02:16:00,
2013-10-24 21:18:00,37.8,28.6,30.33,WNW,295,4.6,5.8,69,0.00,,,0.00,0.00,VWS V14.01,2013-10-25 02:18:00,
2013-10-24 21:19:00,37.8,28.6,30.33,WNW,292,3.4,5.8,69,0.00,,,0.00,0.00,VWS V14.01,2013-10-25 02:19:00,
2013-10-24 21:20:00,37.8,28.6,30.33,West,277,4.6,5.8,69,0.00,,,0.00,0.00,VWS V14.01,2013-10-25 02:20:00,
2013-10-24 21:21:00,37.8,28.6,30.32,West,277,2.3,3.4,69,0.00,,,0.00,0.00,VWS V14.01,2013-10-25 02:21:00,
2013-10-24 21:25:00,37.8,28.6,30.33,West,279,3.4,6.9,69,0.00,,,0.00,0.00,VWS V14.01,2013-10-25 02:25:00,
2013-10-24 21:26:00,37.7,28.5,30.33,WNW,291,9.2,9.2,69,0.00,,,0.00,0.00,VWS V14.01,2013-10-25 02:26:00,
2013-10-24 21:27:00,37.7,28.5,30.33,WNW,282,3.4,9.2,69,0.00,,,0.00,0.00,VWS V14.01,2013-10-25 02:27:00,
2013-10-24 21:30:00,37.7,28.5,30.33,WNW,297,3.4,9.2,69,0.00,,,0.00,0.00,VWS V14.01,2013-10-25 02:30:00,
2013-10-24 21:31:00,37.7,28.5,30.33,WNW,296,5.8,5.8,69,0.00,,,0.00,0.00,VWS V14.01,2013-10-25 02:31:00,
2013-10-24 21:32:00,37.7,28.5,30.33,WNW,300,3.4,5.8,69,0.00,,,0.00,0.00,VWS V14.01,2013-10-25 02:32:00,
2013-10-24 21:36:00,37.7,28.5,30.33,WNW,285,4.6,4.6,69,0.00,,,0.00,0.00,VWS V14.01,2013-10-25 02:36:00,
2013-10-24 21:37:00,37.7,28.5,30.33,West,277,5.8,5.8,69,0.00,,,0.00,0.00,VWS V14.01,2013-10-25 02:37:00,
2013-10-24 21:38:00,37.7,28.5,30.33,WNW,296,4.6,5.8,69,0.00,,,0.00,0.00,VWS V14.01,2013-10-25 02:38:00,
2013-10-24 21:39:00,37.7,28.5,30.33,West,273,3.4,5.8,69,0.00,,,0.00,0.00,VWS V14.01,2013-10-25 02:39:00,
2013-10-24 21:41:00,37.7,28.5,30.33,WNW,290,8.1,9.2,69,0.00,,,0.00,0.00,VWS V14.01,2013-10-25 02:41:00,
2013-10-24 21:42:00,37.7,28.5,30.33,West,277,5.8,9.2,69,0.00,,,0.00,0.00,VWS V14.01,2013-10-25 02:42:00,
2013-10-24 21:43:00,37.7,28.5,30.33,WNW,290,4.6,9.2,69,0.00,,,0.00,0.00,VWS V14.01,2013-10-25 02:43:00,
2013-10-24 21:44:00,37.7,28.5,30.33,WNW,290,3.4,9.2,69,0.00,,,0.00,0.00,VWS V14.01,2013-10-25 02:44:00,
2013-10-24 21:47:00,37.7,28.5,30.33,WNW,292,2.3,3.4,69,0.00,,,0.00,0.00,VWS V14.01,2013-10-25 02:47:00,
2013-10-24 21:48:00,37.7,28.5,30.33,WNW,290,4.6,4.6,69,0.00,,,0.00,0.00,VWS V14.01,2013-10-25 02:48:00,
2013-10-24 21:49:00,37.7,28.8,30.33,WNW,290,2.3,4.6,70,0.00,,,0.00,0.00,VWS V14.01,2013-10-25 02:49:00,
2013-10-24 21:52:00,37.7,28.8,30.33,West,277,4.6,5.8,70,0.00,,,0.00,0.00,VWS V14.01,2013-10-25 02:52:00,
2013-10-24 21:53:00,37.7,28.8,30.33,WNW,288,5.8,6.9,70,0.00,,,0.00,0.00,VWS V14.01,2013-10-25 02:53:00,
2013-10-24 21:54:00,37.7,28.8,30.33,West,280,3.4,6.9,70,0.00,,,0.00,0.00,VWS V14.01,2013-10-25 02:54:00,
2013-10-24 21:55:00,37.7,28.8,30.33,West,281,2.3,6.9,70,0.00,,,0.00,0.00,VWS V14.01,2013-10-25 02:55:00,
2013-10-24 21:57:00,37.7,28.8,30.33,West,277,1.1,4.6,70,0.00,,,0.00,0.00,VWS V14.01,2013-10-25 02:57:00,
2013-10-24 21:58:00,37.7,28.8,30.33,West,271,3.4,4.6,70,0.00,,,0.00,0.00,VWS V14.01,2013-10-25 02:58:00,
2013-10-24 22:00:00,37.6,28.7,30.34,West,269,1.1,4.6,70,0.00,,,0.00,0.00,VWS V14.01,2013-10-25 03:00:00,
2013-10-24 22:02:00,37.6,28.7,30.34,West,281,4.6,4.6,70,0.00,,,0.00,0.00,VWS V14.01,2013-10-25 03:02:00,
2013-10-24 22:03:00,37.6,28.7,30.34,West,281,3.4,4.6,70,0.00,,,0.00,0.00,VWS V14.01,2013-10-25 03:03:00,
2013-10-24 22:05:00,37.6,28.7,30.34,WNW,284,2.3,5.8,70,0.00,,,0.00,0.00,VWS V14.01,2013-10-25 03:05:00,
2013-10-24 22:06:00,37.6,28.7,30.34,WNW,292,2.3,3.4,70,0.00,,,0.00,0.00,VWS V14.01,2013-10-25 03:06:00,
2013-10-24 22:08:00,37.5,28.6,30.34,West,270,3.4,3.4,70,0.00,,,0.00,0.00,VWS V14.01,2013-10-25 03:08:00,
2013-10-24 22:10:00,37.5,28.6,30.34,WNW,283,4.6,4.6,70,0.00,,,0.00,0.00,VWS V14.01,2013-10-25 03:10:00,
2013-10-24 22:12:00,37.5,28.6,30.34,WNW,289,4.6,5.8,70,0.00,,,0.00,0.00,VWS V14.01,2013-10-25 03:12:00,
2013-10-24 22:13:00,37.5,28.6,30.34,West,280,1.1,5.8,70,0.00,,,0.00,0.00,VWS V14.01,2013-10-25 03:13:00,
2013-10-24 22:14:00,37.5,28.6,30.34,WNW,303,1.1,5.8,70,0.00,,,0.00,0.00,VWS V14.01,2013-10-25 03:14:00,
2013-10-24 22:15:00,37.5,28.6,30.34,WNW,294,2.3,5.8,70,0.00,,,0.00,0.00,VWS V14.01,2013-10-25 03:15:00,
2013-10-24 22:17:00,37.4,28.5,30.34,WNW,287,2.3,4.6,70,0.00,,,0.00,0.00,VWS V14.01,2013-10-25 03:17:00,
2013-10-24 22:18:00,37.4,28.5,30.34,WNW,287,1.1,4.6,70,0.00,,,0.00,0.00,VWS V14.01,2013-10-25 03:18:00,
2013-10-24 22:20:00,37.4,28.9,30.34,WNW,288,3.4,4.6,71,0.00,,,0.00,0.00,VWS V14.01,2013-10-25 03:20:00,
2013-10-24 22:24:00,37.3,28.8,30.34,West,278,4.6,6.9,71,0.00,,,0.00,0.00,VWS V14.01,2013-10-25 03:24:00,
2013-10-24 22:25:00,37.3,28.8,30.34,West,276,3.4,3.4,71,0.00,,,0.00,0.00,VWS V14.01,2013-10-25 03:25:00,
2013-10-24 22:26:00,37.3,28.8,30.34,West,277,3.4,3.4,71,0.00,,,0.00,0.00,VWS V14.01,2013-10-25 03:26:00,
2013-10-24 22:27:00,37.3,28.8,30.34,West,276,2.3,5.8,71,0.00,,,0.00,0.00,VWS V14.01,2013-10-25 03:27:00,
2013-10-24 22:30:00,37.2,28.7,30.34,West,276,3.4,5.8,71,0.00,,,0.00,0.00,VWS V14.01,2013-10-25 03:30:00,
2013-10-24 22:31:00,37.2,28.7,30.34,West,268,2.3,4.6,71,0.00,,,0.00,0.00,VWS V14.01,2013-10-25 03:31:00,
2013-10-24 22:33:00,37.1,28.6,30.34,West,275,3.4,5.8,71,0.00,,,0.00,0.00,VWS V14.01,2013-10-25 03:33:00,
2013-10-24 22:35:00,37.1,28.6,30.33,West,281,3.4,5.8,71,0.00,,,0.00,0.00,VWS V14.01,2013-10-25 03:35:00,
2013-10-24 22:36:00,37.1,28.6,30.34,West,281,2.3,3.4,71,0.00,,,0.00,0.00,VWS V14.01,2013-10-25 03:36:00,
2013-10-24 22:37:00,37.0,28.5,30.34,WNW,288,5.8,5.8,71,0.00,,,0.00,0.00,VWS V14.01,2013-10-25 03:37:00,
2013-10-24 22:38:00,37.0,28.5,30.34,WNW,288,1.1,5.8,71,0.00,,,0.00,0.00,VWS V14.01,2013-10-25 03:38:00,
2013-10-24 22:41:00,36.9,28.4,30.34,West,281,3.4,4.6,71,0.00,,,0.00,0.00,VWS V14.01,2013-10-25 03:41:00,
2013-10-24 22:42:00,36.9,28.4,30.34,WNW,283,2.3,4.6,71,0.00,,,0.00,0.00,VWS V14.01,2013-10-25 03:42:00,
2013-10-24 22:43:00,36.9,28.7,30.34,WNW,283,2.3,4.6,72,0.00,,,0.00,0.00,VWS V14.01,2013-10-25 03:43:00,
2013-10-24 22:44:00,36.9,28.7,30.34,WNW,283,2.3,4.6,72,0.00,,,0.00,0.00,VWS V14.01,2013-10-25 03:44:00,
2013-10-24 22:46:00,36.8,28.6,30.34,WNW,283,2.3,4.6,72,0.00,,,0.00,0.00,VWS V14.01,2013-10-25 03:46:00,
2013-10-24 22:47:00,36.8,28.6,30.34,WNW,283,1.1,4.6,72,0.00,,,0.00,0.00,VWS V14.01,2013-10-25 03:47:00,
2013-10-24 22:48:00,36.8,28.6,30.34,WNW,283,3.4,4.6,72,0.00,,,0.00,0.00,VWS V14.01,2013-10-25 03:48:00,
2013-10-24 22:49:00,36.8,28.6,30.34,WNW,283,3.4,4.6,72,0.00,,,0.00,0.00,VWS V14.01,2013-10-25 03:49:00,
2013-10-24 22:50:00,36.8,28.6,30.34,WNW,283,2.3,4.6,72,0.00,,,0.00,0.00,VWS V14.01,2013-10-25 03:50:00,
2013-10-24 22:51:00,36.7,28.5,30.34,WNW,283,3.4,3.4,72,0.00,,,0.00,0.00,VWS V14.01,2013-10-25 03:51:00,
2013-10-24 22:52:00,36.7,28.5,30.34,WNW,283,2.3,4.6,72,0.00,,,0.00,0.00,VWS V14.01,2013-10-25 03:52:00,
2013-10-24 22:53:00,36.7,28.5,30.34,WNW,283,2.3,4.6,72,0.00,,,0.00,0.00,VWS V14.01,2013-10-25 03:53:00,
2013-10-24 22:55:00,36.6,28.8,30.34,WNW,282,1.1,4.6,73,0.00,,,0.00,0.00,VWS V14.01,2013-10-25 03:55:00,
2013-10-24 22:57:00,36.6,28.8,30.34,WNW,282,3.4,4.6,73,0.00,,,0.00,0.00,VWS V14.01,2013-10-25 03:57:00,
2013-10-24 22:58:00,36.6,28.8,30.34,WNW,282,1.1,4.6,73,0.00,,,0.00,0.00,VWS V14.01,2013-10-25 03:58:00,
2013-10-24 22:59:00,36.6,28.8,30.34,WNW,282,3.4,4.6,73,0.00,,,0.00,0.00,VWS V14.01,2013-10-25 03:59:00,
2013-10-24 23:00:00,36.6,28.8,30.34,West,263,5.8,6.9,73,0.00,,,0.00,0.00,VWS V14.01,2013-10-25 04:00:00,
2013-10-24 23:01:00,36.6,28.8,30.34,West,265,2.3,5.8,73,0.00,,,0.00,0.00,VWS V14.01,2013-10-25 04:01:00,
2013-10-24 23:02:00,36.5,28.7,30.34,West,271,4.6,6.9,73,0.00,,,0.00,0.00,VWS V14.01,2013-10-25 04:02:00,
2013-10-24 23:06:00,36.5,28.7,30.34,West,275,4.6,6.9,73,0.00,,,0.00,0.00,VWS V14.01,2013-10-25 04:06:00,
2013-10-24 23:07:00,36.4,28.6,30.34,WNW,286,2.3,6.9,73,0.00,,,0.00,0.00,VWS V14.01,2013-10-25 04:07:00,
2013-10-24 23:09:00,36.4,28.6,30.34,WNW,283,3.4,6.9,73,0.00,,,0.00,0.00,VWS V14.01,2013-10-25 04:09:00,
2013-10-24 23:11:00,36.4,28.6,30.33,West,279,2.3,5.8,73,0.00,,,0.00,0.00,VWS V14.01,2013-10-25 04:11:00,
2013-10-24 23:12:00,36.4,28.6,30.33,WNW,286,2.3,5.8,73,0.00,,,0.00,0.00,VWS V14.01,2013-10-25 04:12:00,
2013-10-24 23:15:00,36.4,28.6,30.34,West,280,3.4,6.9,73,0.00,,,0.00,0.00,VWS V14.01,2013-10-25 04:15:00,
2013-10-24 23:17:00,36.4,28.6,30.34,WNW,286,4.6,9.2,73,0.00,,,0.00,0.00,VWS V14.01,2013-10-25 04:17:00,
2013-10-24 23:18:00,36.3,28.5,30.34,WNW,296,3.4,9.2,73,0.00,,,0.00,0.00,VWS V14.01,2013-10-25 04:18:00,
2013-10-24 23:20:00,36.3,28.5,30.34,West,281,3.4,9.2,73,0.00,,,0.00,0.00,VWS V14.01,2013-10-25 04:20:00,
2013-10-24 23:22:00,36.3,28.5,30.34,West,280,3.4,4.6,73,0.00,,,0.00,0.00,VWS V14.01,2013-10-25 04:22:00,
2013-10-24 23:23:00,36.3,28.5,30.34,West,269,4.6,5.8,73,0.00,,,0.00,0.00,VWS V14.01,2013-10-25 04:23:00,
2013-10-24 23:26:00,36.2,28.4,30.34,West,267,5.8,5.8,73,0.00,,,0.00,0.00,VWS V14.01,2013-10-25 04:26:00,
2013-10-24 23:28:00,36.2,28.4,30.34,West,277,5.8,8.1,73,0.00,,,0.00,0.00,VWS V14.01,2013-10-25 04:28:00,
2013-10-24 23:29:00,36.2,28.4,30.34,WNW,286,8.1,9.2,73,0.00,,,0.00,0.00,VWS V14.01,2013-10-25 04:29:00,
2013-10-24 23:31:00,36.2,28.4,30.34,WNW,284,8.1,8.1,73,0.00,,,0.00,0.00,VWS V14.01,2013-10-25 04:31:00,
2013-10-24 23:33:00,36.2,28.4,30.34,WNW,293,3.4,8.1,73,0.00,,,0.00,0.00,VWS V14.01,2013-10-25 04:33:00,
2013-10-24 23:34:00,36.2,28.4,30.34,WNW,293,2.3,8.1,73,0.00,,,0.00,0.00,VWS V14.01,2013-10-25 04:34:00,
2013-10-24 23:35:00,36.2,28.4,30.34,West,269,8.1,8.1,73,0.00,,,0.00,0.00,VWS V14.01,2013-10-25 04:35:00,
2013-10-24 23:36:00,36.1,28.3,30.34,WNW,294,5.8,8.1,73,0.00,,,0.00,0.00,VWS V14.01,2013-10-25 04:36:00,
2013-10-24 23:39:00,36.1,28.3,30.34,West,269,5.8,10.3,73,0.00,,,0.00,0.00,VWS V14.01,2013-10-25 04:39:00,
2013-10-24 23:40:00,36.1,28.3,30.34,West,275,4.6,10.3,73,0.00,,,0.00,0.00,VWS V14.01,2013-10-25 04:40:00,
2013-10-24 23:41:00,36.1,28.3,30.34,NW,305,4.6,4.6,73,0.00,,,0.00,0.00,VWS V14.01,2013-10-25 04:41:00,
2013-10-24 23:42:00,36.1,28.3,30.34,West,281,5.8,6.9,73,0.00,,,0.00,0.00,VWS V14.01,2013-10-25 04:42:00,
2013-10-24 23:45:00,36.0,28.2,30.34,West,275,4.6,9.2,73,0.00,,,0.00,0.00,VWS V14.01,2013-10-25 04:45:00,
2013-10-24 23:46:00,36.0,28.2,30.34,West,280,5.8,5.8,73,0.00,,,0.00,0.00,VWS V14.01,2013-10-25 04:46:00,
2013-10-24 23:47:00,35.9,28.1,30.34,West,280,2.3,5.8,73,0.00,,,0.00,0.00,VWS V14.01,2013-10-25 04:47:00,
2013-10-24 23:50:00,35.8,28.0,30.34,West,275,4.6,4.6,73,0.00,,,0.00,0.00,VWS V14.01,2013-10-25 04:50:00,
2013-10-24 23:51:00,35.8,28.0,30.34,West,277,3.4,4.6,73,0.00,,,0.00,0.00,VWS V14.01,2013-10-25 04:51:00,
2013-10-24 23:52:00,35.8,28.0,30.34,West,275,3.4,4.6,73,0.00,,,0.00,0.00,VWS V14.01,2013-10-25 04:52:00,
2013-10-24 23:53:00,35.7,27.9,30.34,West,280,5.8,5.8,73,0.00,,,0.00,0.00,VWS V14.01,2013-10-25 04:53:00,
2013-10-24 23:55:00,35.7,27.9,30.34,WNW,282,3.4,8.1,73,0.00,,,0.00,0.00,VWS V14.01,2013-10-25 04:55:00,
2013-10-24 23:57:00,35.6,27.8,30.34,WNW,282,3.4,5.8,73,0.00,,,0.00,0.00,VWS V14.01,2013-10-25 04:57:00,
2013-10-24 23:58:00,35.6,28.1,30.34,WNW,286,3.4,5.8,74,0.00,,,0.00,0.00,VWS V14.01,2013-10-25 04:58:00,
2013-10-24 23:59:00,35.5,28.0,30.34,West,271,5.8,8.1,74,0.00,,,0.00,0.00,VWS V14.01,2013-10-25 04:59:00,